GFSMA_prec_precacc24_159.txt.gz
Total_Precipitation_Accumulation
0.01 0.00 0.00 0.00 0.00 0.00 0.00 0.00 0.00 0.00 0.01 0.00 0.00 0.00 0.00 0.00 0.04 0.11 0.21 0.26 0.21 0.40 0.40 0.25 0.27 0.17 0.04 0.02 0.02 0.01 0.01 0.02 0.01 0.01 0.01 0.02 0.02 0.01 0.01 0.01 0.00 0.00 0.00
0.01 0.01 0.00 0.00 0.00 0.00 0.00 0.00 0.00 0.00 0.00 0.00 0.00 0.00 0.00 0.00 0.02 0.05 0.12 0.23 0.23 0.23 0.27 0.32 0.17 0.18 0.14 0.02 0.02 0.01 0.02 0.02 0.01 0.02 0.01 0.01 0.01 0.01 0.01 0.01 0.00 0.00 0.00
0.11 0.08 0.04 0.01 0.00 0.00 0.01 0.01 0.01 0.00 0.00 0.00 0.00 0.00 0.00 0.00 0.02 0.03 0.06 0.13 0.24 0.27 0.15 0.21 0.31 0.27 0.17 0.06 0.02 0.01 0.02 0.03 0.03 0.02 0.01 0.00 0.01 0.01 0.01 0.00 0.00 0.00 0.00
0.23 0.26 0.15 0.03 0.03 0.04 0.06 0.08 0.05 0.03 0.00 0.00 0.00 0.00 0.00 0.00 0.01 0.01 0.03 0.04 0.05 0.11 0.12 0.04 0.08 0.16 0.17 0.12 0.02 0.02 0.02 0.02 0.04 0.02 0.01 0.00 0.01 0.01 0.01 0.00 0.00 0.00 0.00
0.29 0.38 0.27 0.09 0.11 0.09 0.08 0.16 0.10 0.14 0.08 0.04 0.02 0.04 0.01 0.00 0.01 0.02 0.04 0.08 0.08 0.08 0.11 0.06 0.02 0.03 0.04 0.07 0.04 0.02 0.02 0.03 0.04 0.02 0.00 0.00 0.01 0.00 0.01 0.00 0.00 0.00 0.00
0.19 0.25 0.24 0.19 0.22 0.23 0.13 0.13 0.19 0.24 0.23 0.17 0.14 0.12 0.09 0.05 0.05 0.05 0.06 0.06 0.11 0.18 0.17 0.17 0.05 0.01 0.01 0.03 0.05 0.04 0.04 0.04 0.04 0.03 0.01 0.00 0.00 0.01 0.01 0.01 0.00 0.00 0.00
0.21 0.17 0.12 0.11 0.21 0.22 0.20 0.38 0.49 0.47 0.25 0.30 0.44 0.41 0.33 0.15 0.11 0.05 0.07 0.04 0.03 0.06 0.15 0.19 0.12 0.06 0.01 0.02 0.04 0.07 0.05 0.07 0.06 0.05 0.02 0.00 0.00 0.01 0.01 0.01 0.01 0.00 0.00
0.49 0.39 0.32 0.27 0.24 0.18 0.29 0.70 0.78 0.90 0.45 0.56 0.63 0.78 0.50 0.38 0.18 0.15 0.13 0.07 0.03 0.05 0.04 0.15 0.14 0.10 0.04 0.00 0.01 0.03 0.08 0.09 0.07 0.06 0.04 0.00 0.00 0.00 0.00 0.01 0.00 0.00 0.00
0.22 0.55 0.31 0.48 0.58 0.66 0.49 0.79 1.04 0.95 0.63 0.68 0.70 0.58 0.40 0.20 0.24 0.32 0.29 0.24 0.22 0.14 0.10 0.10 0.16 0.12 0.05 0.01 0.00 0.01 0.02 0.06 0.09 0.07 0.03 0.00 0.00 0.00 0.00 0.00 0.01 0.01 0.02
0.33 0.58 0.71 0.64 0.71 0.85 0.90 0.86 1.10 1.09 1.13 0.85 0.98 0.81 0.65 0.52 0.47 0.33 0.31 0.31 0.32 0.23 0.18 0.16 0.18 0.19 0.11 0.02 0.00 0.00 0.00 0.01 0.03 0.05 0.04 0.01 0.00 0.00 0.00 0.01 0.02 0.02 0.02
0.15 0.22 0.57 0.56 0.66 0.80 0.75 0.92 0.94 1.03 1.18 1.43 1.49 1.41 1.28 1.15 1.15 1.10 0.84 0.51 0.40 0.27 0.24 0.19 0.24 0.26 0.16 0.08 0.03 0.01 0.00 0.00 0.00 0.02 0.03 0.02 0.00 0.01 0.02 0.03 0.03 0.03 0.03
0.21 0.31 0.44 0.41 0.47 0.58 0.58 0.82 0.88 0.89 1.20 1.43 1.61 1.91 1.88 1.65 1.24 0.96 0.75 0.54 0.38 0.27 0.24 0.24 0.19 0.15 0.17 0.11 0.06 0.05 0.03 0.01 0.00 0.00 0.01 0.02 0.02 0.03 0.03 0.03 0.04 0.04 0.04
0.70 0.80 0.77 0.77 0.68 0.80 1.05 1.04 0.99 0.98 1.03 1.07 1.00 0.95 0.88 0.94 1.07 1.27 1.45 1.30 1.11 0.79 0.68 0.51 0.27 0.16 0.13 0.13 0.07 0.06 0.08 0.04 0.01 0.00 0.00 0.01 0.02 0.02 0.02 0.03 0.05 0.06 0.06
0.34 0.57 0.67 0.75 0.99 1.16 1.25 1.46 1.35 1.08 1.03 0.81 0.71 0.78 0.79 0.74 0.74 0.75 0.90 1.08 1.14 0.83 0.54 0.40 0.39 0.32 0.19 0.09 0.07 0.12 0.10 0.07 0.03 0.00 0.00 0.01 0.02 0.01 0.01 0.01 0.02 0.04 0.05
0.13 0.22 0.38 0.37 0.47 0.66 0.87 1.09 1.00 0.69 0.64 0.64 0.63 0.56 0.49 0.41 0.47 0.53 0.54 0.50 0.55 0.60 0.75 0.57 0.35 0.24 0.21 0.20 0.14 0.19 0.16 0.12 0.12 0.06 0.02 0.01 0.01 0.02 0.03 0.01 0.01 0.01 0.02
0.15 0.17 0.16 0.22 0.30 0.32 0.36 0.42 0.44 0.43 0.40 0.27 0.35 0.40 0.34 0.27 0.29 0.28 0.36 0.39 0.38 0.39 0.34 0.35 0.37 0.26 0.23 0.20 0.17 0.15 0.08 0.14 0.13 0.09 0.05 0.02 0.01 0.01 0.03 0.04 0.03 0.01 0.02
0.21 0.21 0.20 0.22 0.25 0.25 0.30 0.30 0.31 0.35 0.40 0.35 0.41 0.38 0.36 0.41 0.33 0.32 0.33 0.37 0.37 0.44 0.42 0.43 0.47 0.56 0.51 0.32 0.19 0.17 0.16 0.12 0.07 0.07 0.05 0.03 0.01 0.01 0.03 0.06 0.09 0.07 0.05
0.28 0.30 0.32 0.37 0.38 0.35 0.37 0.37 0.30 0.25 0.27 0.26 0.30 0.37 0.31 0.42 0.38 0.35 0.43 0.48 0.58 0.57 0.68 0.48 0.51 0.67 0.90 0.89 0.58 0.36 0.19 0.11 0.09 0.09 0.09 0.09 0.05 0.02 0.03 0.05 0.10 0.08 0.06
0.38 0.40 0.40 0.41 0.41 0.44 0.43 0.39 0.32 0.26 0.28 0.23 0.25 0.29 0.22 0.37 0.39 0.37 0.46 0.49 0.53 0.59 0.78 0.54 0.37 0.41 0.52 0.71 0.68 0.60 0.45 0.22 0.12 0.16 0.18 0.19 0.18 0.12 0.09 0.09 0.10 0.08 0.07
0.46 0.42 0.48 0.59 0.40 0.31 0.45 0.49 0.50 0.42 0.38 0.30 0.24 0.24 0.24 0.30 0.29 0.28 0.32 0.36 0.43 0.67 0.86 0.68 0.64 0.55 0.45 0.49 0.58 0.63 0.69 0.54 0.35 0.25 0.30 0.26 0.27 0.25 0.21 0.17 0.16 0.13 0.09
0.36 0.43 0.40 0.41 0.44 0.44 0.43 0.55 0.53 0.54 0.52 0.54 0.36 0.23 0.19 0.32 0.38 0.36 0.30 0.23 0.31 0.45 0.73 1.10 1.19 0.90 0.80 0.82 0.72 0.58 0.51 0.54 0.63 0.58 0.42 0.44 0.43 0.41 0.36 0.31 0.28 0.25 0.20
0.47 0.32 0.26 0.24 0.23 0.33 0.42 0.47 0.60 0.63 0.57 0.56 0.44 0.32 0.24 0.23 0.19 0.26 0.32 0.37 0.36 0.33 0.34 0.38 0.41 0.41 0.42 0.40 0.61 0.94 1.05 0.81 0.72 0.62 0.74 0.82 0.78 0.73 0.65 0.55 0.60 0.42 0.29
0.17 0.28 0.28 0.21 0.11 0.16 0.24 0.22 0.34 0.52 0.62 0.57 0.43 0.33 0.32 0.31 0.22 0.12 0.20 0.35 0.58 0.62 0.36 0.27 0.29 0.24 0.26 0.32 0.44 0.69 0.66 0.65 0.68 0.54 0.79 1.11 1.08 1.11 0.97 0.98 1.13 0.89 0.63
0.01 0.01 0.04 0.13 0.14 0.09 0.10 0.07 0.24 0.23 0.30 0.47 0.49 0.46 0.49 0.43 0.33 0.19 0.12 0.14 0.16 0.26 0.32 0.28 0.29 0.30 0.27 0.35 0.56 0.76 0.94 1.19 1.17 1.07 1.21 1.31 1.00 0.98 1.00 0.94 1.08 0.96 0.97
0.00 0.00 0.00 0.00 0.01 0.03 0.08 0.05 0.12 0.34 0.31 0.22 0.36 0.40 0.31 0.41 0.53 0.46 0.32 0.29 0.34 0.33 0.45 0.59 0.54 0.44 0.54 0.68 0.74 0.82 0.95 0.91 0.86 0.71 0.64 0.69 0.79 0.90 1.03 1.04 0.94 0.89 0.84
0.00 0.00 0.00 0.00 0.00 0.00 0.02 0.05 0.06 0.09 0.19 0.19 0.12 0.14 0.22 0.16 0.24 0.21 0.15 0.11 0.15 0.22 0.37 0.40 0.42 0.76 0.91 0.92 0.92 0.75 0.74 0.69 0.71 0.76 0.60 0.51 0.52 0.59 0.93 0.92 0.81 0.76 0.70

GFSMA_prec_precacc24_162.txt.gz
Total_Precipitation_Accumulation
0.07 0.04 0.02 0.01 0.01 0.01 0.00 0.00 0.00 0.00 0.00 0.00 0.00 0.00 0.00 0.00 0.03 0.04 0.08 0.16 0.19 0.37 0.37 0.25 0.26 0.16 0.04 0.01 0.01 0.00 0.01 0.02 0.00 0.00 0.01 0.02 0.02 0.02 0.02 0.02 0.01 0.01 0.01
0.10 0.08 0.07 0.03 0.01 0.01 0.01 0.01 0.00 0.00 0.00 0.00 0.00 0.00 0.00 0.00 0.01 0.02 0.01 0.11 0.21 0.21 0.25 0.33 0.20 0.17 0.15 0.02 0.01 0.00 0.01 0.02 0.01 0.01 0.01 0.01 0.01 0.01 0.01 0.01 0.01 0.01 0.01
0.15 0.16 0.13 0.08 0.04 0.02 0.04 0.08 0.02 0.01 0.00 0.01 0.00 0.00 0.00 0.00 0.02 0.02 0.01 0.04 0.18 0.23 0.14 0.20 0.31 0.27 0.20 0.09 0.01 0.01 0.01 0.02 0.02 0.01 0.01 0.00 0.01 0.01 0.01 0.01 0.00 0.01 0.01
0.23 0.29 0.24 0.13 0.09 0.09 0.11 0.13 0.06 0.03 0.02 0.04 0.01 0.01 0.01 0.00 0.01 0.00 0.00 0.00 0.04 0.09 0.11 0.04 0.08 0.15 0.16 0.13 0.03 0.01 0.01 0.01 0.02 0.01 0.00 0.00 0.01 0.01 0.01 0.01 0.01 0.01 0.01
0.29 0.37 0.28 0.13 0.15 0.14 0.16 0.26 0.18 0.15 0.08 0.06 0.05 0.09 0.05 0.01 0.01 0.00 0.00 0.01 0.04 0.07 0.11 0.06 0.02 0.03 0.03 0.06 0.06 0.02 0.01 0.02 0.03 0.01 0.00 0.00 0.01 0.01 0.01 0.01 0.01 0.01 0.01
0.19 0.25 0.23 0.19 0.25 0.29 0.22 0.25 0.33 0.33 0.25 0.24 0.24 0.16 0.15 0.06 0.03 0.02 0.02 0.02 0.07 0.17 0.17 0.17 0.05 0.01 0.01 0.02 0.04 0.04 0.04 0.05 0.04 0.03 0.01 0.00 0.00 0.01 0.01 0.01 0.01 0.01 0.00
0.21 0.17 0.12 0.11 0.22 0.24 0.25 0.41 0.54 0.58 0.31 0.41 0.61 0.48 0.36 0.21 0.14 0.02 0.03 0.03 0.03 0.06 0.15 0.19 0.12 0.06 0.01 0.01 0.03 0.06 0.06 0.09 0.07 0.06 0.02 0.00 0.00 0.01 0.01 0.01 0.01 0.01 0.00
0.49 0.38 0.31 0.26 0.23 0.16 0.27 0.61 0.63 0.84 0.57 0.76 0.82 0.88 0.54 0.42 0.22 0.18 0.12 0.06 0.06 0.07 0.06 0.16 0.14 0.10 0.04 0.00 0.00 0.02 0.07 0.11 0.11 0.07 0.04 0.00 0.00 0.00 0.00 0.01 0.01 0.00 0.00
0.18 0.53 0.30 0.47 0.57 0.62 0.39 0.61 0.83 0.85 0.62 0.79 0.96 1.03 0.94 0.58 0.32 0.35 0.32 0.26 0.28 0.20 0.17 0.20 0.32 0.27 0.12 0.02 0.00 0.00 0.01 0.05 0.10 0.09 0.03 0.00 0.00 0.00 0.00 0.00 0.01 0.01 0.01
0.28 0.54 0.69 0.62 0.69 0.83 0.86 0.76 0.93 0.96 1.08 0.84 1.05 0.94 0.81 0.70 0.64 0.39 0.35 0.32 0.35 0.32 0.30 0.26 0.26 0.31 0.25 0.09 0.02 0.00 0.00 0.01 0.02 0.05 0.04 0.01 0.00 0.00 0.00 0.00 0.00 0.02 0.02
0.10 0.19 0.51 0.54 0.65 0.79 0.74 0.89 0.86 0.97 1.14 1.43 1.52 1.59 1.54 1.42 1.45 1.37 1.01 0.59 0.46 0.41 0.50 0.56 0.62 0.52 0.29 0.17 0.09 0.03 0.01 0.00 0.00 0.02 0.03 0.02 0.00 0.00 0.00 0.01 0.02 0.02 0.03
0.20 0.30 0.41 0.40 0.45 0.57 0.57 0.79 0.81 0.82 1.07 1.34 1.60 1.96 2.10 2.09 1.96 1.86 1.68 1.16 0.64 0.42 0.38 0.40 0.40 0.43 0.43 0.27 0.14 0.11 0.07 0.02 0.00 0.00 0.01 0.01 0.00 0.00 0.01 0.02 0.03 0.03 0.04
0.69 0.79 0.72 0.74 0.65 0.76 1.01 1.03 0.99 0.96 0.96 0.95 0.94 0.93 0.94 1.09 1.38 1.84 2.19 2.11 1.76 1.11 0.86 0.67 0.44 0.27 0.18 0.19 0.12 0.11 0.13 0.08 0.03 0.00 0.01 0.01 0.01 0.01 0.02 0.03 0.04 0.05 0.05
0.31 0.54 0.63 0.70 0.93 1.10 1.20 1.44 1.34 1.07 1.01 0.76 0.66 0.76 0.81 0.78 0.82 0.90 1.23 1.44 1.42 1.11 0.78 0.55 0.51 0.46 0.34 0.20 0.13 0.16 0.15 0.12 0.08 0.03 0.01 0.01 0.02 0.01 0.01 0.01 0.02 0.04 0.05
0.13 0.20 0.33 0.34 0.43 0.61 0.84 1.03 0.97 0.68 0.63 0.63 0.60 0.54 0.48 0.42 0.49 0.58 0.62 0.60 0.70 0.86 0.97 0.68 0.47 0.30 0.23 0.23 0.20 0.25 0.23 0.17 0.16 0.10 0.06 0.02 0.01 0.02 0.02 0.01 0.01 0.01 0.02
0.15 0.17 0.16 0.21 0.28 0.32 0.35 0.39 0.42 0.42 0.38 0.25 0.33 0.40 0.34 0.28 0.32 0.30 0.39 0.43 0.42 0.41 0.36 0.45 0.46 0.28 0.23 0.19 0.17 0.16 0.09 0.16 0.14 0.10 0.08 0.05 0.02 0.01 0.02 0.03 0.03 0.02 0.02
0.22 0.21 0.21 0.21 0.23 0.22 0.27 0.29 0.31 0.34 0.38 0.31 0.37 0.39 0.36 0.43 0.37 0.36 0.34 0.34 0.26 0.31 0.21 0.26 0.36 0.46 0.41 0.28 0.18 0.17 0.16 0.12 0.07 0.07 0.06 0.05 0.02 0.01 0.01 0.01 0.03 0.05 0.07
0.29 0.31 0.33 0.38 0.39 0.33 0.31 0.35 0.31 0.25 0.27 0.25 0.28 0.36 0.32 0.46 0.43 0.40 0.46 0.40 0.33 0.27 0.29 0.22 0.38 0.50 0.72 0.78 0.56 0.37 0.19 0.12 0.10 0.09 0.10 0.11 0.07 0.03 0.02 0.02 0.02 0.04 0.07
0.38 0.40 0.41 0.42 0.42 0.43 0.41 0.40 0.33 0.28 0.29 0.27 0.27 0.29 0.26 0.44 0.49 0.42 0.45 0.41 0.43 0.40 0.48 0.42 0.31 0.33 0.38 0.55 0.60 0.59 0.45 0.23 0.12 0.15 0.18 0.19 0.18 0.13 0.08 0.06 0.04 0.05 0.07
0.46 0.43 0.50 0.60 0.43 0.34 0.45 0.49 0.52 0.47 0.51 0.46 0.39 0.35 0.32 0.42 0.43 0.33 0.36 0.35 0.39 0.51 0.62 0.60 0.58 0.46 0.29 0.30 0.42 0.57 0.67 0.53 0.35 0.24 0.29 0.24 0.25 0.24 0.21 0.18 0.17 0.13 0.11
0.36 0.43 0.41 0.43 0.46 0.47 0.45 0.53 0.53 0.59 0.65 0.75 0.61 0.46 0.39 0.46 0.54 0.47 0.36 0.27 0.29 0.39 0.66 1.00 1.08 0.79 0.66 0.70 0.59 0.50 0.47 0.52 0.60 0.55 0.40 0.41 0.39 0.34 0.28 0.25 0.29 0.27 0.21
0.47 0.32 0.26 0.25 0.23 0.33 0.42 0.47 0.59 0.61 0.61 0.68 0.64 0.61 0.52 0.41 0.31 0.35 0.40 0.45 0.40 0.34 0.35 0.35 0.37 0.37 0.36 0.37 0.53 0.83 0.97 0.76 0.65 0.57 0.72 0.81 0.73 0.66 0.57 0.49 0.59 0.47 0.36
0.17 0.28 0.28 0.21 0.11 0.16 0.22 0.22 0.29 0.48 0.60 0.61 0.55 0.45 0.50 0.57 0.41 0.22 0.30 0.43 0.62 0.68 0.44 0.33 0.31 0.21 0.21 0.26 0.34 0.53 0.55 0.59 0.63 0.48 0.72 1.02 1.05 1.09 0.92 0.97 1.13 0.93 0.73
0.01 0.01 0.04 0.13 0.14 0.09 0.08 0.06 0.05 0.07 0.24 0.47 0.57 0.61 0.62 0.57 0.52 0.37 0.24 0.27 0.24 0.31 0.38 0.29 0.28 0.24 0.19 0.22 0.38 0.53 0.72 0.95 0.92 0.86 1.09 1.21 0.92 0.91 0.95 0.92 1.06 0.98 1.03
0.00 0.00 0.00 0.00 0.01 0.03 0.06 0.03 0.02 0.02 0.06 0.08 0.20 0.44 0.50 0.58 0.64 0.57 0.43 0.41 0.44 0.40 0.40 0.51 0.43 0.26 0.31 0.41 0.40 0.43 0.56 0.62 0.61 0.54 0.50 0.58 0.68 0.80 0.94 0.99 0.91 0.87 0.85
0.00 0.00 0.00 0.00 0.00 0.00 0.01 0.04 0.02 0.01 0.02 0.03 0.03 0.10 0.26 0.32 0.37 0.30 0.19 0.13 0.18 0.22 0.34 0.34 0.31 0.54 0.66 0.62 0.56 0.40 0.45 0.46 0.51 0.57 0.45 0.39 0.39 0.49 0.82 0.85 0.77 0.77 0.74

GFSMA_prec_precacc24_165.txt.gz
Total_Precipitation_Accumulation
0.10 0.08 0.05 0.04 0.03 0.03 0.03 0.03 0.04 0.01 0.01 0.00 0.00 0.00 0.00 0.00 0.03 0.03 0.05 0.00 0.06 0.27 0.29 0.22 0.28 0.18 0.03 0.01 0.01 0.00 0.00 0.01 0.00 0.00 0.01 0.02 0.02 0.02 0.03 0.02 0.01 0.01 0.01
0.11 0.10 0.09 0.07 0.05 0.05 0.05 0.04 0.04 0.03 0.00 0.00 0.00 0.00 0.00 0.00 0.01 0.02 0.01 0.00 0.06 0.13 0.21 0.31 0.22 0.21 0.17 0.03 0.03 0.01 0.01 0.01 0.00 0.00 0.00 0.01 0.01 0.02 0.02 0.02 0.01 0.01 0.01
0.15 0.16 0.13 0.08 0.06 0.04 0.07 0.11 0.06 0.06 0.03 0.02 0.00 0.00 0.00 0.00 0.02 0.02 0.00 0.00 0.03 0.12 0.09 0.19 0.30 0.26 0.25 0.14 0.02 0.01 0.01 0.01 0.01 0.00 0.00 0.00 0.01 0.02 0.01 0.01 0.01 0.01 0.01
0.23 0.29 0.24 0.13 0.09 0.09 0.12 0.16 0.10 0.07 0.06 0.08 0.02 0.01 0.01 0.00 0.01 0.00 0.00 0.00 0.00 0.04 0.05 0.03 0.08 0.13 0.15 0.15 0.04 0.00 0.01 0.01 0.01 0.00 0.00 0.00 0.01 0.02 0.01 0.01 0.01 0.01 0.01
0.29 0.37 0.28 0.13 0.15 0.14 0.16 0.27 0.20 0.18 0.13 0.11 0.08 0.10 0.05 0.01 0.01 0.00 0.00 0.00 0.01 0.01 0.07 0.06 0.02 0.03 0.02 0.06 0.07 0.04 0.02 0.02 0.02 0.00 0.00 0.00 0.01 0.01 0.01 0.01 0.01 0.01 0.01
0.19 0.24 0.23 0.19 0.25 0.29 0.22 0.25 0.33 0.31 0.25 0.30 0.31 0.20 0.16 0.07 0.03 0.02 0.02 0.00 0.03 0.10 0.10 0.16 0.05 0.01 0.00 0.01 0.04 0.06 0.06 0.04 0.03 0.02 0.01 0.00 0.00 0.01 0.01 0.01 0.01 0.01 0.01
0.21 0.17 0.12 0.11 0.22 0.23 0.24 0.41 0.53 0.57 0.28 0.44 0.73 0.60 0.45 0.27 0.16 0.03 0.03 0.01 0.01 0.04 0.13 0.18 0.12 0.06 0.01 0.00 0.02 0.06 0.07 0.10 0.07 0.05 0.02 0.00 0.00 0.01 0.01 0.02 0.01 0.01 0.01
0.48 0.38 0.31 0.26 0.23 0.15 0.26 0.60 0.60 0.79 0.53 0.70 0.99 1.23 0.91 0.69 0.42 0.27 0.14 0.06 0.06 0.08 0.05 0.16 0.14 0.10 0.04 0.00 0.00 0.01 0.06 0.11 0.14 0.09 0.03 0.00 0.00 0.00 0.00 0.01 0.01 0.01 0.01
0.10 0.46 0.26 0.46 0.55 0.59 0.38 0.59 0.80 0.77 0.54 0.72 0.93 1.13 1.16 0.89 0.67 0.61 0.45 0.30 0.29 0.21 0.18 0.20 0.32 0.28 0.14 0.03 0.00 0.00 0.00 0.04 0.10 0.12 0.04 0.00 0.00 0.00 0.00 0.00 0.01 0.01 0.01
0.06 0.29 0.50 0.49 0.61 0.77 0.83 0.74 0.83 0.84 0.95 0.79 1.00 0.93 0.84 0.80 0.84 0.69 0.59 0.50 0.41 0.35 0.31 0.30 0.29 0.34 0.31 0.18 0.08 0.02 0.01 0.01 0.03 0.06 0.05 0.01 0.00 0.00 0.00 0.00 0.00 0.01 0.02
0.03 0.08 0.34 0.37 0.56 0.72 0.70 0.87 0.84 0.93 1.09 1.41 1.52 1.57 1.55 1.44 1.49 1.47 1.14 0.72 0.59 0.55 0.60 0.65 0.70 0.59 0.36 0.24 0.17 0.11 0.05 0.01 0.02 0.04 0.06 0.02 0.00 0.00 0.00 0.00 0.00 0.00 0.02
0.18 0.30 0.39 0.37 0.42 0.53 0.55 0.78 0.80 0.82 1.06 1.31 1.56 1.95 2.10 2.10 1.97 1.90 1.74 1.29 0.86 0.56 0.48 0.52 0.56 0.59 0.59 0.42 0.24 0.17 0.15 0.09 0.04 0.02 0.03 0.03 0.00 0.00 0.00 0.00 0.00 0.02 0.03
0.63 0.76 0.70 0.71 0.62 0.74 1.01 1.01 0.99 0.97 0.96 0.94 0.88 0.83 0.87 1.07 1.38 1.86 2.24 2.18 1.91 1.36 1.11 0.87 0.61 0.50 0.45 0.45 0.33 0.24 0.22 0.20 0.15 0.07 0.02 0.02 0.03 0.00 0.00 0.00 0.02 0.04 0.05
0.30 0.53 0.63 0.70 0.91 1.09 1.19 1.44 1.33 1.05 1.00 0.75 0.64 0.69 0.74 0.70 0.78 0.92 1.27 1.74 1.92 1.43 0.99 0.67 0.59 0.55 0.47 0.38 0.30 0.30 0.25 0.21 0.18 0.19 0.12 0.02 0.02 0.01 0.00 0.00 0.01 0.03 0.04
0.13 0.20 0.33 0.34 0.42 0.59 0.83 1.02 0.96 0.66 0.61 0.62 0.57 0.50 0.44 0.36 0.44 0.58 0.65 0.68 0.88 1.05 1.09 0.73 0.50 0.34 0.25 0.25 0.25 0.35 0.32 0.24 0.23 0.18 0.18 0.12 0.03 0.03 0.03 0.01 0.01 0.01 0.01
0.15 0.17 0.17 0.21 0.28 0.31 0.33 0.36 0.39 0.39 0.36 0.23 0.32 0.37 0.30 0.26 0.29 0.30 0.42 0.47 0.47 0.45 0.40 0.45 0.47 0.31 0.26 0.20 0.16 0.17 0.15 0.22 0.20 0.18 0.15 0.15 0.11 0.04 0.03 0.04 0.03 0.02 0.02
0.22 0.21 0.21 0.22 0.23 0.22 0.26 0.27 0.30 0.32 0.37 0.30 0.35 0.38 0.33 0.36 0.35 0.33 0.36 0.40 0.31 0.34 0.22 0.27 0.35 0.43 0.33 0.18 0.11 0.15 0.16 0.14 0.11 0.12 0.12 0.12 0.14 0.09 0.06 0.02 0.04 0.06 0.07
0.29 0.31 0.33 0.38 0.39 0.33 0.31 0.33 0.27 0.24 0.27 0.26 0.28 0.35 0.31 0.42 0.39 0.40 0.51 0.49 0.43 0.31 0.30 0.14 0.32 0.42 0.58 0.62 0.40 0.27 0.16 0.11 0.11 0.10 0.11 0.13 0.10 0.05 0.04 0.03 0.02 0.03 0.06
0.38 0.40 0.41 0.43 0.42 0.42 0.40 0.38 0.30 0.25 0.28 0.28 0.29 0.31 0.25 0.40 0.45 0.42 0.53 0.52 0.55 0.55 0.54 0.38 0.28 0.28 0.30 0.41 0.41 0.37 0.33 0.21 0.12 0.15 0.16 0.18 0.18 0.13 0.08 0.06 0.04 0.04 0.04
0.46 0.43 0.50 0.61 0.43 0.34 0.45 0.48 0.48 0.42 0.48 0.46 0.41 0.39 0.33 0.42 0.44 0.40 0.42 0.50 0.63 0.65 0.77 0.63 0.57 0.43 0.24 0.20 0.24 0.37 0.47 0.40 0.33 0.24 0.27 0.21 0.22 0.23 0.20 0.17 0.17 0.14 0.10
0.36 0.44 0.41 0.43 0.46 0.47 0.45 0.53 0.53 0.55 0.56 0.65 0.61 0.54 0.56 0.68 0.67 0.64 0.53 0.45 0.47 0.72 0.78 1.04 1.08 0.77 0.62 0.63 0.48 0.32 0.28 0.38 0.50 0.49 0.38 0.38 0.36 0.33 0.29 0.28 0.27 0.28 0.28
0.47 0.32 0.26 0.25 0.23 0.33 0.42 0.45 0.58 0.61 0.57 0.61 0.59 0.65 0.63 0.65 0.59 0.60 0.63 0.71 0.64 0.56 0.50 0.44 0.42 0.39 0.36 0.36 0.48 0.67 0.78 0.56 0.44 0.42 0.62 0.71 0.66 0.61 0.54 0.48 0.55 0.43 0.35
0.17 0.28 0.28 0.21 0.11 0.16 0.23 0.22 0.28 0.47 0.60 0.57 0.49 0.46 0.58 0.73 0.63 0.45 0.57 0.67 0.83 0.86 0.54 0.40 0.37 0.28 0.23 0.26 0.30 0.38 0.40 0.48 0.54 0.41 0.56 0.78 0.90 1.01 0.88 0.92 1.06 0.87 0.67
0.01 0.01 0.04 0.13 0.14 0.09 0.08 0.06 0.06 0.07 0.22 0.44 0.52 0.46 0.43 0.45 0.65 0.61 0.43 0.48 0.44 0.49 0.44 0.34 0.36 0.37 0.25 0.20 0.29 0.40 0.54 0.74 0.72 0.63 0.87 1.01 0.80 0.83 0.87 0.87 0.99 0.90 0.96
0.00 0.00 0.00 0.00 0.01 0.03 0.06 0.04 0.02 0.02 0.04 0.06 0.16 0.32 0.38 0.36 0.57 0.71 0.61 0.58 0.61 0.53 0.45 0.65 0.57 0.38 0.50 0.55 0.38 0.26 0.36 0.36 0.38 0.34 0.33 0.47 0.57 0.70 0.84 0.90 0.79 0.83 0.86
0.00 0.00 0.01 0.00 0.00 0.00 0.02 0.04 0.02 0.01 0.01 0.02 0.02 0.06 0.18 0.29 0.33 0.37 0.29 0.28 0.33 0.37 0.51 0.42 0.50 0.72 0.77 0.77 0.61 0.38 0.26 0.18 0.23 0.30 0.25 0.26 0.24 0.31 0.62 0.69 0.62 0.63 0.64

GFSMA_prec_precacc24_168.txt.gz
Total_Precipitation_Accumulation
0.10 0.08 0.05 0.04 0.04 0.04 0.06 0.11 0.15 0.10 0.06 0.03 0.04 0.03 0.01 0.00 0.02 0.03 0.05 0.00 0.03 0.14 0.15 0.16 0.25 0.18 0.03 0.01 0.01 0.00 0.00 0.00 0.00 0.00 0.00 0.01 0.01 0.02 0.03 0.02 0.01 0.01 0.02
0.11 0.10 0.09 0.07 0.05 0.05 0.05 0.06 0.07 0.08 0.06 0.05 0.04 0.04 0.03 0.01 0.02 0.02 0.01 0.00 0.03 0.05 0.09 0.22 0.22 0.22 0.18 0.03 0.02 0.01 0.01 0.01 0.00 0.00 0.00 0.01 0.01 0.01 0.02 0.02 0.01 0.01 0.01
0.15 0.16 0.13 0.08 0.06 0.04 0.07 0.11 0.06 0.07 0.07 0.08 0.05 0.05 0.06 0.03 0.04 0.02 0.00 0.00 0.01 0.04 0.03 0.09 0.22 0.22 0.25 0.18 0.03 0.01 0.01 0.01 0.01 0.00 0.00 0.00 0.01 0.01 0.01 0.01 0.01 0.01 0.01
0.23 0.28 0.24 0.13 0.09 0.09 0.12 0.16 0.10 0.07 0.07 0.11 0.06 0.05 0.08 0.07 0.05 0.03 0.01 0.00 0.00 0.00 0.00 0.00 0.03 0.11 0.13 0.16 0.05 0.00 0.01 0.00 0.00 0.00 0.00 0.00 0.01 0.01 0.01 0.01 0.01 0.01 0.02
0.29 0.37 0.28 0.13 0.15 0.14 0.16 0.27 0.20 0.18 0.13 0.11 0.09 0.12 0.08 0.05 0.05 0.06 0.05 0.01 0.00 0.00 0.01 0.02 0.00 0.01 0.01 0.06 0.08 0.05 0.02 0.02 0.01 0.00 0.00 0.00 0.00 0.01 0.01 0.01 0.01 0.01 0.01
0.19 0.24 0.23 0.19 0.24 0.28 0.21 0.24 0.33 0.31 0.24 0.30 0.31 0.20 0.16 0.08 0.05 0.06 0.08 0.07 0.05 0.03 0.02 0.07 0.04 0.01 0.00 0.00 0.03 0.06 0.08 0.06 0.03 0.02 0.01 0.00 0.00 0.01 0.01 0.01 0.01 0.01 0.01
0.21 0.16 0.11 0.10 0.21 0.23 0.24 0.41 0.52 0.57 0.28 0.43 0.73 0.60 0.45 0.27 0.19 0.08 0.08 0.08 0.08 0.07 0.05 0.11 0.06 0.05 0.01 0.00 0.01 0.06 0.07 0.12 0.09 0.05 0.02 0.00 0.00 0.01 0.01 0.02 0.01 0.01 0.01
0.48 0.37 0.30 0.26 0.22 0.14 0.25 0.57 0.58 0.77 0.51 0.66 0.97 1.22 0.90 0.68 0.42 0.33 0.26 0.21 0.17 0.16 0.10 0.14 0.11 0.08 0.04 0.00 0.00 0.01 0.05 0.12 0.17 0.12 0.03 0.00 0.00 0.00 0.00 0.01 0.01 0.01 0.01
0.10 0.43 0.22 0.41 0.52 0.55 0.33 0.55 0.75 0.74 0.51 0.66 0.89 1.13 1.16 0.89 0.67 0.62 0.51 0.38 0.35 0.26 0.23 0.23 0.34 0.29 0.15 0.03 0.00 0.00 0.00 0.02 0.09 0.14 0.05 0.00 0.00 0.00 0.00 0.00 0.01 0.01 0.01
0.06 0.23 0.40 0.32 0.36 0.49 0.69 0.68 0.77 0.79 0.90 0.76 0.92 0.91 0.86 0.82 0.86 0.69 0.60 0.55 0.51 0.44 0.35 0.30 0.29 0.34 0.33 0.21 0.11 0.03 0.01 0.01 0.02 0.05 0.05 0.00 0.00 0.00 0.00 0.00 0.00 0.01 0.01
0.03 0.07 0.33 0.27 0.32 0.51 0.57 0.78 0.79 0.87 1.07 1.39 1.48 1.56 1.55 1.45 1.50 1.48 1.15 0.73 0.66 0.66 0.69 0.70 0.71 0.59 0.37 0.27 0.21 0.17 0.09 0.02 0.06 0.08 0.09 0.02 0.00 0.00 0.00 0.00 0.00 0.00 0.00
0.07 0.13 0.28 0.34 0.40 0.49 0.49 0.71 0.74 0.77 1.02 1.27 1.54 1.93 2.10 2.12 1.99 1.92 1.75 1.29 0.87 0.60 0.56 0.64 0.69 0.65 0.63 0.47 0.29 0.23 0.24 0.20 0.18 0.17 0.15 0.10 0.01 0.00 0.00 0.00 0.00 0.00 0.00
0.17 0.28 0.33 0.50 0.56 0.72 0.99 0.99 0.97 0.94 0.91 0.90 0.85 0.82 0.87 1.07 1.37 1.86 2.24 2.16 1.92 1.37 1.15 0.91 0.66 0.55 0.50 0.51 0.42 0.34 0.32 0.30 0.27 0.20 0.13 0.11 0.08 0.01 0.00 0.00 0.00 0.00 0.01
0.23 0.36 0.36 0.40 0.71 1.02 1.15 1.42 1.30 1.03 0.97 0.72 0.62 0.68 0.74 0.69 0.75 0.88 1.28 1.73 1.92 1.43 1.01 0.70 0.63 0.63 0.55 0.42 0.35 0.39 0.39 0.38 0.37 0.34 0.23 0.11 0.07 0.04 0.00 0.00 0.00 0.00 0.02
0.11 0.16 0.27 0.28 0.37 0.54 0.77 0.97 0.93 0.65 0.60 0.60 0.56 0.49 0.44 0.35 0.44 0.57 0.62 0.67 0.90 1.06 1.11 0.76 0.53 0.35 0.26 0.26 0.23 0.32 0.34 0.33 0.34 0.32 0.31 0.27 0.18 0.08 0.04 0.01 0.01 0.00 0.01
0.15 0.17 0.15 0.18 0.26 0.29 0.30 0.31 0.34 0.35 0.31 0.21 0.30 0.35 0.29 0.26 0.29 0.29 0.37 0.42 0.48 0.46 0.41 0.47 0.48 0.34 0.28 0.21 0.16 0.17 0.16 0.26 0.27 0.25 0.24 0.23 0.24 0.25 0.16 0.06 0.03 0.02 0.02
0.22 0.21 0.21 0.22 0.23 0.21 0.24 0.23 0.24 0.28 0.31 0.26 0.31 0.34 0.30 0.34 0.32 0.30 0.30 0.31 0.28 0.35 0.23 0.28 0.38 0.45 0.37 0.20 0.12 0.13 0.14 0.14 0.13 0.16 0.17 0.20 0.22 0.23 0.26 0.21 0.08 0.06 0.07
0.29 0.31 0.33 0.38 0.39 0.33 0.30 0.30 0.23 0.20 0.24 0.22 0.24 0.31 0.29 0.40 0.36 0.33 0.45 0.45 0.40 0.31 0.32 0.17 0.35 0.45 0.60 0.63 0.37 0.23 0.12 0.08 0.09 0.09 0.13 0.16 0.13 0.17 0.26 0.28 0.19 0.07 0.07
0.38 0.40 0.41 0.43 0.42 0.42 0.40 0.38 0.30 0.22 0.25 0.24 0.26 0.28 0.24 0.39 0.44 0.39 0.50 0.47 0.50 0.53 0.55 0.43 0.35 0.34 0.33 0.42 0.38 0.29 0.21 0.10 0.06 0.12 0.13 0.22 0.27 0.19 0.15 0.21 0.29 0.30 0.16
0.46 0.43 0.50 0.61 0.43 0.34 0.45 0.48 0.47 0.40 0.46 0.40 0.37 0.36 0.32 0.42 0.47 0.42 0.43 0.47 0.58 0.60 0.77 0.74 0.71 0.52 0.37 0.24 0.28 0.35 0.41 0.28 0.18 0.13 0.19 0.16 0.22 0.30 0.24 0.20 0.22 0.26 0.31
0.37 0.44 0.41 0.43 0.47 0.47 0.45 0.53 0.53 0.55 0.54 0.59 0.54 0.49 0.53 0.64 0.68 0.66 0.58 0.46 0.45 0.71 0.81 1.16 1.30 1.00 0.74 0.84 0.55 0.32 0.23 0.26 0.32 0.27 0.19 0.26 0.29 0.30 0.27 0.27 0.26 0.27 0.29
0.47 0.33 0.26 0.25 0.23 0.33 0.42 0.46 0.59 0.62 0.58 0.61 0.55 0.55 0.54 0.59 0.55 0.64 0.67 0.72 0.70 0.65 0.80 0.66 0.60 0.70 0.71 0.51 0.62 0.68 0.73 0.45 0.25 0.22 0.42 0.49 0.51 0.50 0.44 0.41 0.51 0.43 0.34
0.17 0.28 0.28 0.21 0.11 0.16 0.22 0.22 0.28 0.47 0.60 0.57 0.49 0.43 0.42 0.51 0.53 0.46 0.60 0.73 0.94 0.99 0.85 0.81 0.70 0.55 0.67 0.57 0.41 0.40 0.36 0.40 0.41 0.29 0.36 0.46 0.61 0.76 0.69 0.75 0.93 0.79 0.68
0.01 0.01 0.05 0.13 0.14 0.09 0.08 0.07 0.06 0.07 0.22 0.45 0.52 0.44 0.39 0.32 0.42 0.50 0.46 0.56 0.60 0.75 0.79 0.78 0.73 0.67 0.56 0.41 0.38 0.44 0.53 0.65 0.57 0.46 0.60 0.70 0.52 0.58 0.62 0.63 0.79 0.78 0.86
0.00 0.00 0.00 0.00 0.01 0.03 0.06 0.05 0.03 0.02 0.04 0.06 0.16 0.31 0.36 0.30 0.31 0.36 0.42 0.55 0.75 0.73 0.85 0.99 1.03 0.66 0.71 0.72 0.47 0.33 0.42 0.44 0.37 0.31 0.26 0.32 0.37 0.49 0.60 0.66 0.61 0.67 0.75
0.00 0.00 0.01 0.00 0.00 0.00 0.02 0.05 0.03 0.01 0.02 0.02 0.02 0.05 0.15 0.25 0.26 0.25 0.24 0.28 0.42 0.57 0.78 0.76 0.81 1.01 0.91 0.90 0.72 0.44 0.37 0.36 0.40 0.42 0.29 0.26 0.14 0.17 0.38 0.45 0.47 0.51 0.51

GFSMA_prec_precacc24_171.txt.gz
Total_Precipitation_Accumulation
0.10 0.08 0.05 0.04 0.04 0.04 0.06 0.11 0.15 0.11 0.08 0.07 0.12 0.11 0.10 0.05 0.02 0.03 0.05 0.00 0.03 0.08 0.06 0.06 0.14 0.15 0.03 0.01 0.01 0.00 0.00 0.00 0.00 0.00 0.00 0.01 0.01 0.02 0.02 0.02 0.01 0.01 0.02
0.11 0.10 0.09 0.07 0.05 0.05 0.05 0.06 0.07 0.08 0.06 0.06 0.07 0.12 0.13 0.10 0.06 0.03 0.01 0.00 0.00 0.00 0.04 0.13 0.16 0.19 0.15 0.04 0.02 0.01 0.01 0.00 0.00 0.00 0.00 0.01 0.01 0.01 0.02 0.02 0.01 0.01 0.01
0.15 0.16 0.13 0.08 0.06 0.04 0.07 0.11 0.06 0.07 0.07 0.08 0.06 0.07 0.11 0.11 0.11 0.05 0.01 0.00 0.01 0.00 0.00 0.03 0.09 0.17 0.21 0.18 0.04 0.01 0.01 0.00 0.00 0.00 0.00 0.00 0.00 0.01 0.01 0.01 0.01 0.01 0.01
0.23 0.28 0.24 0.13 0.09 0.09 0.12 0.16 0.10 0.07 0.07 0.11 0.06 0.05 0.08 0.09 0.10 0.11 0.10 0.03 0.00 0.00 0.00 0.00 0.01 0.06 0.09 0.14 0.05 0.01 0.01 0.00 0.00 0.00 0.00 0.00 0.01 0.01 0.01 0.01 0.01 0.01 0.02
0.29 0.37 0.28 0.13 0.14 0.14 0.16 0.27 0.20 0.18 0.13 0.11 0.09 0.12 0.08 0.05 0.05 0.09 0.11 0.10 0.07 0.04 0.01 0.01 0.00 0.00 0.01 0.05 0.07 0.05 0.02 0.01 0.00 0.00 0.00 0.00 0.00 0.01 0.01 0.01 0.01 0.01 0.01
0.18 0.24 0.23 0.19 0.24 0.28 0.21 0.24 0.33 0.31 0.24 0.30 0.31 0.20 0.16 0.08 0.05 0.06 0.08 0.11 0.13 0.10 0.03 0.02 0.02 0.02 0.00 0.00 0.03 0.06 0.08 0.06 0.03 0.01 0.01 0.00 0.00 0.01 0.01 0.01 0.01 0.01 0.01
0.21 0.16 0.11 0.10 0.21 0.23 0.23 0.40 0.52 0.56 0.27 0.43 0.72 0.58 0.43 0.27 0.18 0.08 0.07 0.08 0.12 0.14 0.12 0.11 0.06 0.02 0.01 0.01 0.01 0.05 0.08 0.14 0.11 0.04 0.02 0.00 0.00 0.01 0.01 0.02 0.01 0.01 0.01
0.48 0.37 0.30 0.25 0.21 0.13 0.24 0.55 0.57 0.76 0.49 0.65 0.97 1.17 0.88 0.68 0.41 0.33 0.26 0.22 0.19 0.22 0.19 0.19 0.15 0.09 0.03 0.01 0.01 0.01 0.05 0.13 0.19 0.11 0.02 0.00 0.00 0.00 0.00 0.01 0.01 0.01 0.01
0.09 0.42 0.21 0.40 0.51 0.54 0.32 0.53 0.73 0.70 0.48 0.62 0.87 1.12 1.17 0.89 0.66 0.62 0.51 0.38 0.36 0.29 0.29 0.28 0.40 0.35 0.22 0.07 0.03 0.01 0.00 0.02 0.09 0.13 0.04 0.00 0.00 0.00 0.00 0.00 0.01 0.01 0.01
0.05 0.22 0.39 0.30 0.33 0.47 0.58 0.54 0.67 0.70 0.78 0.66 0.83 0.84 0.82 0.82 0.84 0.67 0.60 0.54 0.51 0.44 0.38 0.35 0.35 0.40 0.39 0.29 0.17 0.10 0.04 0.01 0.02 0.05 0.05 0.00 0.00 0.00 0.00 0.00 0.00 0.01 0.01
0.01 0.06 0.31 0.22 0.21 0.47 0.55 0.69 0.64 0.73 0.93 1.24 1.39 1.54 1.53 1.41 1.46 1.46 1.11 0.71 0.65 0.65 0.70 0.75 0.81 0.69 0.46 0.35 0.28 0.29 0.15 0.07 0.07 0.12 0.11 0.02 0.00 0.00 0.00 0.00 0.00 0.00 0.00
0.03 0.08 0.19 0.21 0.28 0.41 0.45 0.68 0.71 0.74 1.00 1.25 1.50 1.87 2.06 2.10 1.98 1.92 1.72 1.25 0.86 0.59 0.55 0.64 0.72 0.74 0.74 0.59 0.41 0.35 0.37 0.28 0.26 0.26 0.29 0.20 0.04 0.00 0.00 0.00 0.00 0.00 0.00
0.09 0.08 0.13 0.24 0.27 0.34 0.59 0.77 0.93 0.93 0.89 0.88 0.82 0.80 0.84 1.03 1.30 1.80 2.18 2.08 1.86 1.36 1.15 0.91 0.66 0.57 0.59 0.66 0.60 0.50 0.46 0.41 0.36 0.29 0.23 0.25 0.18 0.05 0.00 0.00 0.00 0.00 0.00
0.07 0.13 0.13 0.18 0.28 0.44 0.59 0.97 1.25 1.01 0.95 0.70 0.57 0.63 0.70 0.66 0.71 0.81 1.21 1.65 1.83 1.38 0.96 0.68 0.63 0.63 0.60 0.50 0.42 0.56 0.54 0.48 0.45 0.40 0.27 0.16 0.17 0.14 0.05 0.01 0.00 0.00 0.00
0.06 0.10 0.17 0.20 0.26 0.32 0.59 0.82 0.78 0.55 0.54 0.57 0.54 0.46 0.41 0.33 0.42 0.54 0.57 0.60 0.78 1.01 1.07 0.67 0.52 0.35 0.27 0.35 0.42 0.54 0.48 0.40 0.40 0.38 0.39 0.35 0.22 0.11 0.08 0.06 0.04 0.01 0.00
0.11 0.15 0.12 0.16 0.22 0.27 0.28 0.25 0.25 0.25 0.21 0.15 0.26 0.31 0.27 0.24 0.27 0.27 0.34 0.39 0.40 0.37 0.34 0.42 0.48 0.34 0.29 0.23 0.19 0.24 0.36 0.53 0.44 0.31 0.29 0.32 0.33 0.33 0.20 0.09 0.05 0.03 0.02
0.20 0.20 0.20 0.21 0.22 0.21 0.22 0.19 0.21 0.24 0.23 0.17 0.19 0.25 0.26 0.32 0.31 0.28 0.29 0.29 0.26 0.30 0.18 0.16 0.32 0.43 0.35 0.20 0.15 0.16 0.17 0.20 0.18 0.17 0.19 0.23 0.28 0.28 0.31 0.27 0.14 0.08 0.08
0.28 0.31 0.33 0.38 0.39 0.33 0.30 0.30 0.20 0.17 0.21 0.19 0.18 0.20 0.22 0.30 0.31 0.31 0.43 0.43 0.39 0.29 0.27 0.14 0.28 0.41 0.51 0.53 0.38 0.28 0.17 0.14 0.14 0.12 0.13 0.16 0.17 0.27 0.35 0.33 0.27 0.15 0.09
0.38 0.40 0.41 0.43 0.42 0.43 0.40 0.38 0.30 0.21 0.23 0.21 0.22 0.22 0.21 0.28 0.32 0.33 0.44 0.44 0.45 0.48 0.49 0.39 0.27 0.30 0.30 0.38 0.37 0.35 0.28 0.14 0.11 0.12 0.08 0.14 0.21 0.19 0.25 0.36 0.42 0.39 0.25
0.46 0.43 0.50 0.61 0.43 0.34 0.45 0.48 0.47 0.40 0.46 0.40 0.35 0.32 0.27 0.33 0.39 0.38 0.40 0.45 0.55 0.55 0.69 0.65 0.63 0.49 0.34 0.23 0.31 0.42 0.49 0.38 0.23 0.13 0.13 0.09 0.13 0.24 0.26 0.28 0.38 0.47 0.51
0.37 0.44 0.41 0.43 0.47 0.47 0.45 0.53 0.54 0.56 0.54 0.60 0.54 0.47 0.49 0.55 0.58 0.58 0.54 0.45 0.43 0.68 0.74 1.07 1.22 0.96 0.71 0.81 0.57 0.38 0.30 0.32 0.42 0.32 0.16 0.16 0.14 0.13 0.24 0.35 0.37 0.42 0.41
0.47 0.33 0.26 0.25 0.23 0.33 0.42 0.46 0.59 0.62 0.58 0.62 0.56 0.55 0.53 0.54 0.49 0.54 0.55 0.62 0.67 0.66 0.75 0.60 0.57 0.67 0.68 0.47 0.71 0.80 0.81 0.55 0.35 0.26 0.40 0.40 0.34 0.30 0.24 0.25 0.46 0.50 0.45
0.17 0.28 0.28 0.21 0.11 0.16 0.22 0.22 0.28 0.47 0.61 0.58 0.50 0.44 0.42 0.51 0.50 0.45 0.55 0.54 0.65 0.77 0.86 0.87 0.73 0.51 0.63 0.57 0.49 0.70 0.61 0.46 0.48 0.33 0.38 0.44 0.52 0.62 0.51 0.52 0.63 0.61 0.62
0.01 0.01 0.05 0.13 0.14 0.09 0.08 0.07 0.06 0.07 0.22 0.45 0.52 0.45 0.40 0.33 0.42 0.50 0.46 0.53 0.54 0.66 0.74 0.83 0.82 0.74 0.64 0.55 0.63 0.62 0.82 0.97 0.68 0.50 0.64 0.69 0.47 0.47 0.45 0.38 0.47 0.47 0.60
0.00 0.00 0.00 0.00 0.01 0.03 0.06 0.05 0.03 0.02 0.04 0.06 0.16 0.31 0.37 0.30 0.30 0.35 0.39 0.45 0.53 0.56 0.69 0.81 1.00 0.78 0.92 0.95 0.68 0.64 0.69 0.70 0.86 0.51 0.30 0.33 0.36 0.45 0.47 0.44 0.34 0.39 0.46
0.00 0.00 0.01 0.00 0.00 0.00 0.02 0.05 0.03 0.02 0.02 0.02 0.02 0.05 0.15 0.25 0.25 0.24 0.24 0.28 0.39 0.46 0.55 0.58 0.77 1.02 1.09 1.15 0.96 0.63 0.74 0.71 0.70 0.79 0.38 0.29 0.15 0.16 0.32 0.31 0.31 0.33 0.31

GFSMA_prec_precacc24_174.txt.gz
Total_Precipitation_Accumulation
0.10 0.08 0.05 0.04 0.04 0.04 0.06 0.11 0.15 0.11 0.08 0.07 0.12 0.11 0.12 0.09 0.05 0.03 0.03 0.16 0.08 0.08 0.04 0.06 0.07 0.06 0.01 0.01 0.01 0.00 0.00 0.00 0.00 0.00 0.00 0.01 0.01 0.02 0.02 0.02 0.02 0.01 0.02
0.11 0.09 0.09 0.07 0.04 0.05 0.05 0.06 0.07 0.08 0.06 0.06 0.07 0.12 0.13 0.11 0.09 0.08 0.02 0.13 0.22 0.11 0.05 0.13 0.16 0.13 0.10 0.04 0.02 0.01 0.01 0.00 0.00 0.00 0.00 0.00 0.01 0.01 0.01 0.02 0.01 0.01 0.01
0.15 0.16 0.13 0.08 0.06 0.04 0.07 0.11 0.06 0.07 0.07 0.08 0.06 0.07 0.11 0.11 0.11 0.05 0.02 0.02 0.16 0.20 0.10 0.06 0.08 0.14 0.18 0.17 0.04 0.01 0.01 0.00 0.00 0.00 0.00 0.00 0.00 0.01 0.01 0.01 0.01 0.01 0.02
0.23 0.28 0.24 0.13 0.09 0.09 0.12 0.16 0.10 0.07 0.07 0.11 0.06 0.05 0.08 0.09 0.10 0.11 0.11 0.05 0.02 0.10 0.19 0.12 0.10 0.09 0.10 0.15 0.06 0.01 0.01 0.00 0.00 0.00 0.00 0.00 0.00 0.01 0.01 0.01 0.01 0.01 0.02
0.29 0.37 0.28 0.13 0.14 0.14 0.16 0.27 0.20 0.18 0.13 0.11 0.09 0.12 0.08 0.05 0.05 0.09 0.11 0.10 0.08 0.06 0.07 0.22 0.19 0.12 0.12 0.14 0.11 0.07 0.03 0.02 0.00 0.00 0.00 0.00 0.00 0.01 0.01 0.01 0.01 0.01 0.01
0.18 0.24 0.23 0.19 0.24 0.27 0.21 0.24 0.33 0.31 0.24 0.30 0.31 0.19 0.16 0.08 0.05 0.06 0.08 0.11 0.13 0.10 0.04 0.08 0.22 0.21 0.28 0.33 0.15 0.09 0.10 0.07 0.03 0.01 0.01 0.00 0.00 0.00 0.01 0.01 0.01 0.01 0.01
0.19 0.16 0.11 0.10 0.20 0.22 0.23 0.38 0.52 0.56 0.27 0.43 0.71 0.51 0.38 0.26 0.18 0.07 0.07 0.08 0.12 0.14 0.13 0.13 0.13 0.16 0.17 0.17 0.09 0.11 0.09 0.15 0.12 0.05 0.02 0.00 0.00 0.00 0.01 0.02 0.01 0.01 0.01
0.37 0.31 0.30 0.25 0.21 0.13 0.23 0.52 0.55 0.76 0.49 0.64 0.96 1.12 0.84 0.66 0.41 0.33 0.26 0.21 0.18 0.21 0.19 0.20 0.19 0.15 0.17 0.23 0.19 0.07 0.09 0.13 0.20 0.11 0.02 0.00 0.00 0.00 0.00 0.01 0.01 0.01 0.01
0.08 0.30 0.19 0.37 0.50 0.51 0.31 0.52 0.72 0.70 0.48 0.62 0.85 1.10 1.17 0.88 0.66 0.62 0.50 0.37 0.34 0.28 0.29 0.27 0.40 0.38 0.32 0.30 0.41 0.43 0.18 0.06 0.09 0.14 0.03 0.00 0.00 0.00 0.00 0.00 0.01 0.01 0.01
0.05 0.18 0.31 0.27 0.32 0.44 0.51 0.48 0.64 0.69 0.77 0.64 0.76 0.75 0.75 0.76 0.79 0.63 0.58 0.54 0.51 0.43 0.37 0.35 0.34 0.40 0.40 0.40 0.44 0.59 0.44 0.13 0.05 0.06 0.04 0.00 0.00 0.00 0.00 0.00 0.00 0.01 0.01
0.00 0.03 0.21 0.17 0.18 0.36 0.42 0.49 0.54 0.64 0.79 1.06 1.20 1.32 1.38 1.29 1.30 1.28 1.02 0.67 0.64 0.64 0.68 0.74 0.80 0.68 0.46 0.40 0.37 0.42 0.53 0.64 0.54 0.30 0.17 0.03 0.00 0.00 0.00 0.00 0.00 0.00 0.00
0.02 0.04 0.14 0.15 0.17 0.25 0.27 0.47 0.56 0.63 0.75 0.99 1.31 1.75 2.02 2.07 1.95 1.85 1.63 1.16 0.80 0.55 0.53 0.63 0.71 0.73 0.74 0.59 0.46 0.48 0.54 0.47 0.52 0.72 0.55 0.26 0.06 0.00 0.00 0.00 0.00 0.00 0.00
0.02 0.04 0.08 0.16 0.17 0.15 0.27 0.30 0.48 0.57 0.57 0.61 0.64 0.71 0.81 1.01 1.26 1.71 2.04 1.94 1.74 1.30 1.11 0.90 0.66 0.57 0.59 0.66 0.61 0.54 0.53 0.58 0.59 0.56 0.54 0.49 0.27 0.12 0.03 0.01 0.00 0.00 0.00
0.01 0.02 0.03 0.10 0.15 0.15 0.22 0.30 0.32 0.31 0.35 0.43 0.45 0.57 0.67 0.65 0.69 0.75 1.08 1.49 1.63 1.18 0.89 0.61 0.60 0.63 0.60 0.50 0.42 0.56 0.69 0.70 0.59 0.70 0.78 0.65 0.33 0.23 0.13 0.06 0.02 0.00 0.00
0.02 0.03 0.05 0.07 0.09 0.12 0.19 0.26 0.25 0.16 0.18 0.28 0.41 0.38 0.36 0.32 0.37 0.47 0.51 0.50 0.63 0.68 0.69 0.60 0.48 0.34 0.27 0.34 0.42 0.54 0.49 0.51 0.64 0.63 0.75 1.07 0.81 0.27 0.17 0.13 0.09 0.04 0.01
0.03 0.06 0.07 0.08 0.11 0.11 0.10 0.10 0.13 0.17 0.15 0.10 0.19 0.22 0.21 0.21 0.24 0.23 0.30 0.32 0.30 0.26 0.27 0.27 0.31 0.23 0.27 0.23 0.19 0.24 0.36 0.54 0.55 0.47 0.42 0.62 0.99 0.88 0.42 0.18 0.11 0.08 0.06
0.06 0.09 0.13 0.16 0.16 0.13 0.12 0.11 0.14 0.19 0.19 0.14 0.13 0.16 0.18 0.22 0.23 0.21 0.22 0.24 0.21 0.21 0.13 0.07 0.14 0.19 0.25 0.17 0.14 0.16 0.17 0.20 0.21 0.27 0.31 0.33 0.54 0.90 0.77 0.37 0.20 0.14 0.13
0.15 0.20 0.27 0.35 0.36 0.28 0.24 0.24 0.15 0.11 0.15 0.14 0.14 0.15 0.18 0.22 0.20 0.21 0.34 0.36 0.33 0.24 0.22 0.12 0.15 0.20 0.19 0.28 0.29 0.25 0.17 0.14 0.16 0.19 0.17 0.18 0.20 0.35 0.63 0.44 0.31 0.19 0.14
0.30 0.33 0.37 0.40 0.41 0.42 0.39 0.38 0.29 0.21 0.22 0.20 0.20 0.20 0.18 0.23 0.27 0.25 0.34 0.37 0.38 0.42 0.41 0.35 0.22 0.22 0.20 0.25 0.27 0.27 0.23 0.13 0.12 0.16 0.13 0.18 0.23 0.19 0.26 0.39 0.45 0.43 0.29
0.41 0.41 0.48 0.60 0.42 0.34 0.45 0.48 0.47 0.40 0.47 0.40 0.35 0.32 0.26 0.29 0.33 0.32 0.31 0.32 0.38 0.33 0.46 0.49 0.52 0.41 0.30 0.18 0.26 0.37 0.45 0.35 0.20 0.15 0.16 0.10 0.14 0.24 0.26 0.27 0.37 0.48 0.55
0.34 0.43 0.41 0.43 0.47 0.47 0.45 0.53 0.54 0.56 0.55 0.60 0.54 0.48 0.50 0.54 0.54 0.51 0.45 0.37 0.35 0.55 0.44 0.58 0.70 0.74 0.64 0.77 0.49 0.30 0.25 0.28 0.40 0.37 0.19 0.17 0.16 0.14 0.21 0.31 0.34 0.43 0.52
0.35 0.29 0.26 0.25 0.23 0.33 0.42 0.45 0.59 0.62 0.58 0.62 0.57 0.56 0.53 0.55 0.49 0.52 0.49 0.53 0.54 0.56 0.70 0.51 0.45 0.56 0.63 0.45 0.65 0.74 0.76 0.53 0.34 0.30 0.56 0.48 0.37 0.32 0.24 0.20 0.32 0.41 0.40
0.12 0.21 0.23 0.21 0.11 0.16 0.22 0.22 0.28 0.47 0.61 0.58 0.50 0.44 0.43 0.52 0.50 0.45 0.53 0.50 0.58 0.60 0.71 0.81 0.69 0.49 0.63 0.55 0.46 0.62 0.54 0.41 0.45 0.35 0.44 0.55 0.62 0.67 0.52 0.49 0.51 0.46 0.48
0.01 0.01 0.05 0.13 0.14 0.09 0.08 0.07 0.06 0.07 0.22 0.45 0.53 0.45 0.41 0.34 0.42 0.50 0.46 0.52 0.53 0.62 0.67 0.73 0.68 0.67 0.65 0.57 0.65 0.61 0.74 0.88 0.65 0.51 0.74 0.83 0.57 0.55 0.46 0.38 0.42 0.40 0.44
0.00 0.00 0.00 0.00 0.01 0.03 0.06 0.05 0.03 0.03 0.04 0.07 0.16 0.31 0.37 0.31 0.30 0.35 0.39 0.45 0.53 0.56 0.67 0.74 0.85 0.66 0.80 0.77 0.58 0.67 0.63 0.69 0.86 0.55 0.39 0.44 0.43 0.50 0.52 0.44 0.33 0.35 0.39
0.00 0.00 0.01 0.00 0.00 0.00 0.02 0.05 0.03 0.02 0.02 0.02 0.02 0.05 0.15 0.25 0.25 0.25 0.24 0.30 0.41 0.46 0.55 0.58 0.74 0.75 0.57 0.73 0.73 0.54 0.67 0.71 0.76 1.00 0.52 0.40 0.25 0.20 0.37 0.33 0.32 0.31 0.24

GFSMA_prec_precacc24_177.txt.gz
Total_Precipitation_Accumulation
0.10 0.08 0.05 0.04 0.04 0.04 0.06 0.11 0.15 0.11 0.08 0.07 0.12 0.11 0.12 0.09 0.04 0.04 0.04 0.25 0.16 0.17 0.16 0.20 0.20 0.16 0.07 0.02 0.01 0.00 0.00 0.00 0.00 0.00 0.00 0.01 0.01 0.02 0.02 0.02 0.01 0.01 0.02
0.11 0.09 0.09 0.07 0.04 0.05 0.05 0.06 0.07 0.08 0.06 0.06 0.07 0.12 0.13 0.11 0.09 0.06 0.02 0.14 0.26 0.18 0.14 0.21 0.30 0.27 0.21 0.11 0.04 0.01 0.01 0.00 0.00 0.00 0.00 0.00 0.01 0.01 0.01 0.01 0.01 0.01 0.01
0.15 0.16 0.13 0.08 0.06 0.04 0.07 0.11 0.06 0.07 0.07 0.08 0.06 0.07 0.11 0.11 0.11 0.05 0.02 0.02 0.16 0.21 0.16 0.15 0.18 0.28 0.38 0.33 0.11 0.04 0.02 0.00 0.00 0.00 0.00 0.00 0.00 0.01 0.01 0.01 0.01 0.01 0.02
0.23 0.28 0.24 0.13 0.09 0.09 0.12 0.16 0.10 0.07 0.07 0.11 0.06 0.05 0.08 0.09 0.10 0.11 0.11 0.05 0.02 0.10 0.20 0.14 0.15 0.15 0.26 0.35 0.20 0.06 0.02 0.00 0.00 0.00 0.00 0.00 0.00 0.01 0.01 0.01 0.01 0.01 0.02
0.27 0.37 0.28 0.13 0.14 0.14 0.16 0.27 0.20 0.18 0.13 0.11 0.09 0.11 0.07 0.05 0.05 0.09 0.11 0.10 0.08 0.06 0.07 0.22 0.20 0.16 0.21 0.28 0.39 0.47 0.23 0.05 0.00 0.00 0.00 0.00 0.00 0.01 0.01 0.01 0.01 0.01 0.01
0.12 0.19 0.21 0.19 0.23 0.26 0.21 0.23 0.32 0.31 0.24 0.30 0.31 0.18 0.14 0.08 0.05 0.06 0.08 0.11 0.13 0.10 0.04 0.08 0.22 0.21 0.31 0.46 0.50 0.63 0.90 0.43 0.13 0.02 0.01 0.00 0.00 0.00 0.01 0.01 0.01 0.01 0.01
0.02 0.07 0.08 0.08 0.16 0.21 0.23 0.23 0.42 0.53 0.26 0.43 0.66 0.47 0.35 0.25 0.18 0.07 0.07 0.08 0.12 0.14 0.13 0.13 0.13 0.16 0.19 0.24 0.24 0.28 0.32 0.33 0.33 0.19 0.03 0.00 0.00 0.00 0.00 0.01 0.01 0.01 0.01
0.06 0.11 0.16 0.16 0.15 0.11 0.19 0.28 0.35 0.63 0.45 0.61 0.88 0.97 0.76 0.63 0.41 0.33 0.26 0.21 0.18 0.21 0.19 0.20 0.19 0.15 0.17 0.23 0.24 0.34 0.57 0.53 0.58 0.57 0.12 0.01 0.00 0.00 0.00 0.01 0.01 0.01 0.01
0.01 0.04 0.10 0.17 0.19 0.27 0.15 0.27 0.42 0.51 0.37 0.53 0.74 1.03 1.09 0.86 0.64 0.61 0.49 0.37 0.34 0.28 0.29 0.27 0.40 0.38 0.32 0.30 0.41 0.46 0.53 0.68 0.80 0.95 0.72 0.19 0.03 0.00 0.00 0.00 0.01 0.01 0.01
0.00 0.01 0.04 0.13 0.18 0.23 0.27 0.30 0.46 0.52 0.59 0.47 0.53 0.60 0.64 0.73 0.77 0.61 0.52 0.50 0.50 0.43 0.37 0.35 0.34 0.40 0.40 0.40 0.44 0.60 0.61 0.47 0.48 0.63 0.76 0.60 0.16 0.02 0.00 0.00 0.00 0.01 0.01
0.00 0.00 0.00 0.03 0.09 0.17 0.21 0.27 0.29 0.40 0.61 0.92 1.03 1.01 1.03 1.03 1.11 1.15 0.90 0.59 0.59 0.62 0.67 0.74 0.80 0.68 0.46 0.40 0.37 0.42 0.55 0.86 0.98 0.91 0.89 0.71 0.53 0.19 0.03 0.00 0.00 0.00 0.00
0.00 0.00 0.00 0.00 0.01 0.05 0.09 0.13 0.24 0.31 0.34 0.48 0.85 1.36 1.59 1.62 1.61 1.62 1.50 1.10 0.77 0.51 0.47 0.59 0.70 0.73 0.74 0.59 0.46 0.48 0.54 0.48 0.67 1.04 1.41 1.26 0.92 0.55 0.17 0.04 0.01 0.00 0.00
0.00 0.00 0.00 0.00 0.00 0.01 0.04 0.12 0.17 0.28 0.24 0.23 0.30 0.46 0.63 0.87 1.10 1.57 2.01 1.90 1.67 1.24 0.99 0.81 0.62 0.53 0.58 0.66 0.61 0.54 0.53 0.58 0.59 0.59 0.75 1.25 1.30 1.06 0.70 0.27 0.04 0.00 0.00
0.01 0.01 0.01 0.01 0.01 0.02 0.04 0.11 0.13 0.11 0.16 0.23 0.21 0.25 0.37 0.41 0.49 0.59 0.96 1.37 1.48 1.02 0.72 0.50 0.48 0.54 0.56 0.50 0.42 0.56 0.69 0.70 0.59 0.70 0.78 0.75 0.86 0.95 0.74 0.42 0.17 0.04 0.00
0.01 0.01 0.01 0.01 0.01 0.02 0.06 0.09 0.08 0.04 0.08 0.14 0.22 0.20 0.18 0.21 0.28 0.38 0.41 0.42 0.59 0.66 0.48 0.28 0.30 0.21 0.19 0.29 0.42 0.54 0.49 0.51 0.64 0.63 0.75 1.09 0.97 0.91 1.01 0.91 0.56 0.16 0.05
0.01 0.02 0.04 0.05 0.06 0.06 0.03 0.04 0.05 0.07 0.07 0.05 0.15 0.17 0.15 0.14 0.15 0.15 0.21 0.25 0.24 0.24 0.27 0.21 0.23 0.17 0.17 0.16 0.15 0.23 0.35 0.53 0.55 0.47 0.42 0.62 1.00 0.97 0.77 0.84 0.77 0.47 0.18
0.03 0.04 0.07 0.09 0.09 0.05 0.04 0.05 0.06 0.05 0.05 0.06 0.11 0.15 0.14 0.13 0.14 0.11 0.13 0.18 0.16 0.16 0.13 0.05 0.05 0.08 0.08 0.07 0.09 0.13 0.15 0.19 0.21 0.27 0.31 0.33 0.54 0.93 1.01 0.89 0.76 0.62 0.36
0.08 0.12 0.15 0.21 0.18 0.12 0.11 0.12 0.09 0.06 0.09 0.10 0.10 0.11 0.12 0.15 0.13 0.13 0.16 0.19 0.18 0.14 0.15 0.10 0.06 0.07 0.08 0.07 0.08 0.12 0.12 0.12 0.15 0.18 0.17 0.18 0.20 0.36 0.77 0.91 0.90 0.77 0.61
0.15 0.14 0.15 0.21 0.24 0.23 0.31 0.24 0.18 0.17 0.19 0.18 0.16 0.15 0.14 0.18 0.20 0.16 0.24 0.27 0.27 0.31 0.31 0.26 0.15 0.14 0.14 0.14 0.13 0.13 0.12 0.10 0.10 0.15 0.13 0.18 0.23 0.19 0.27 0.55 0.86 0.92 0.79
0.14 0.16 0.19 0.27 0.20 0.19 0.38 0.43 0.40 0.37 0.46 0.40 0.34 0.31 0.25 0.28 0.32 0.30 0.25 0.26 0.34 0.27 0.34 0.35 0.36 0.27 0.23 0.15 0.20 0.17 0.16 0.15 0.12 0.10 0.14 0.10 0.14 0.24 0.26 0.27 0.40 0.64 0.92
0.16 0.20 0.19 0.21 0.28 0.31 0.38 0.50 0.53 0.55 0.55 0.60 0.54 0.48 0.50 0.54 0.53 0.51 0.45 0.35 0.31 0.49 0.30 0.30 0.34 0.34 0.28 0.42 0.28 0.19 0.19 0.15 0.19 0.25 0.17 0.16 0.16 0.14 0.21 0.31 0.33 0.41 0.53
0.14 0.17 0.17 0.16 0.16 0.27 0.38 0.43 0.58 0.62 0.58 0.62 0.57 0.56 0.53 0.55 0.50 0.54 0.49 0.52 0.52 0.51 0.63 0.44 0.36 0.44 0.46 0.27 0.44 0.44 0.52 0.41 0.25 0.18 0.43 0.41 0.33 0.33 0.23 0.20 0.31 0.39 0.38
0.07 0.10 0.11 0.13 0.10 0.14 0.21 0.21 0.28 0.47 0.61 0.58 0.50 0.44 0.43 0.52 0.51 0.45 0.53 0.50 0.57 0.58 0.66 0.72 0.60 0.42 0.59 0.50 0.38 0.55 0.44 0.28 0.29 0.18 0.20 0.27 0.50 0.65 0.52 0.48 0.51 0.46 0.47
0.01 0.01 0.02 0.06 0.08 0.06 0.07 0.07 0.06 0.07 0.22 0.45 0.53 0.45 0.41 0.34 0.43 0.50 0.46 0.53 0.53 0.62 0.67 0.73 0.67 0.59 0.56 0.52 0.55 0.49 0.69 0.81 0.55 0.32 0.43 0.48 0.39 0.50 0.46 0.39 0.41 0.40 0.44
0.00 0.00 0.00 0.00 0.00 0.01 0.04 0.04 0.03 0.03 0.04 0.07 0.16 0.31 0.37 0.31 0.29 0.35 0.42 0.47 0.53 0.56 0.67 0.74 0.84 0.64 0.72 0.69 0.56 0.69 0.59 0.55 0.74 0.47 0.32 0.39 0.39 0.49 0.56 0.48 0.34 0.36 0.39
0.00 0.00 0.01 0.00 0.00 0.00 0.01 0.03 0.03 0.02 0.02 0.02 0.02 0.05 0.14 0.25 0.25 0.27 0.26 0.31 0.43 0.47 0.55 0.58 0.74 0.75 0.56 0.70 0.66 0.54 0.69 0.70 0.64 0.85 0.40 0.37 0.24 0.22 0.40 0.35 0.34 0.33 0.26

GFSMA_prec_precacc24_180.txt.gz
Total_Precipitation_Accumulation
0.10 0.08 0.05 0.04 0.04 0.04 0.06 0.11 0.15 0.11 0.08 0.07 0.12 0.11 0.12 0.09 0.04 0.04 0.04 0.25 0.16 0.14 0.18 0.27 0.34 0.41 0.42 0.19 0.08 0.01 0.00 0.00 0.00 0.00 0.00 0.00 0.01 0.01 0.02 0.02 0.01 0.01 0.02
0.11 0.09 0.09 0.07 0.04 0.05 0.05 0.06 0.07 0.08 0.06 0.06 0.07 0.12 0.13 0.11 0.09 0.06 0.02 0.14 0.26 0.17 0.13 0.20 0.30 0.35 0.35 0.39 0.49 0.28 0.03 0.01 0.00 0.00 0.00 0.00 0.00 0.01 0.01 0.01 0.01 0.01 0.01
0.15 0.16 0.13 0.08 0.06 0.04 0.06 0.11 0.06 0.07 0.07 0.08 0.06 0.07 0.11 0.11 0.11 0.05 0.02 0.02 0.16 0.21 0.16 0.15 0.18 0.25 0.45 0.62 0.70 0.67 0.47 0.11 0.02 0.00 0.00 0.00 0.00 0.01 0.00 0.01 0.01 0.01 0.02
0.22 0.28 0.24 0.13 0.09 0.08 0.09 0.15 0.09 0.06 0.07 0.11 0.06 0.05 0.08 0.09 0.10 0.11 0.11 0.05 0.02 0.10 0.20 0.14 0.15 0.14 0.22 0.36 0.40 0.73 1.19 0.63 0.22 0.02 0.00 0.00 0.00 0.01 0.00 0.01 0.01 0.01 0.02
0.13 0.18 0.19 0.12 0.14 0.13 0.15 0.22 0.17 0.16 0.13 0.11 0.09 0.08 0.07 0.05 0.05 0.09 0.11 0.10 0.08 0.06 0.07 0.22 0.20 0.16 0.20 0.26 0.39 0.59 0.85 0.82 0.65 0.39 0.08 0.01 0.00 0.00 0.01 0.01 0.01 0.01 0.01
0.04 0.05 0.07 0.12 0.15 0.15 0.16 0.20 0.25 0.25 0.22 0.29 0.30 0.12 0.09 0.06 0.04 0.06 0.08 0.11 0.13 0.10 0.04 0.08 0.22 0.21 0.31 0.46 0.49 0.62 1.10 1.67 1.82 1.60 0.73 0.20 0.04 0.00 0.01 0.01 0.01 0.01 0.01
0.00 0.01 0.03 0.04 0.08 0.14 0.15 0.16 0.27 0.35 0.20 0.39 0.55 0.36 0.28 0.22 0.16 0.07 0.07 0.08 0.12 0.13 0.12 0.13 0.13 0.16 0.19 0.24 0.23 0.25 0.33 0.43 0.52 0.86 1.25 0.77 0.22 0.05 0.01 0.01 0.01 0.01 0.01
0.00 0.00 0.00 0.00 0.01 0.03 0.07 0.14 0.20 0.34 0.27 0.48 0.62 0.66 0.58 0.49 0.37 0.26 0.18 0.20 0.18 0.21 0.18 0.19 0.19 0.15 0.17 0.23 0.24 0.33 0.54 0.50 0.57 0.65 0.59 0.70 0.57 0.31 0.06 0.01 0.01 0.01 0.01
0.00 0.00 0.00 0.00 0.00 0.01 0.01 0.04 0.13 0.24 0.21 0.34 0.49 0.78 0.94 0.79 0.55 0.48 0.41 0.31 0.31 0.28 0.29 0.27 0.39 0.38 0.32 0.30 0.41 0.46 0.53 0.66 0.79 0.98 1.17 1.23 1.06 0.63 0.33 0.10 0.01 0.01 0.01
0.00 0.00 0.00 0.00 0.00 0.01 0.02 0.01 0.06 0.17 0.27 0.25 0.28 0.30 0.37 0.44 0.55 0.50 0.46 0.45 0.42 0.39 0.36 0.34 0.34 0.39 0.39 0.40 0.44 0.60 0.61 0.47 0.48 0.63 0.83 0.99 0.84 0.61 0.32 0.17 0.05 0.01 0.01
0.00 0.00 0.00 0.00 0.00 0.01 0.01 0.02 0.02 0.06 0.18 0.35 0.61 0.68 0.62 0.69 0.82 0.90 0.80 0.51 0.48 0.52 0.58 0.67 0.73 0.62 0.45 0.39 0.37 0.42 0.55 0.86 0.98 0.91 0.89 0.80 0.88 0.95 0.75 0.40 0.22 0.04 0.01
0.00 0.00 0.00 0.00 0.00 0.01 0.01 0.01 0.02 0.06 0.13 0.23 0.54 1.04 1.32 1.35 1.41 1.47 1.37 0.97 0.67 0.44 0.41 0.50 0.62 0.69 0.69 0.56 0.45 0.48 0.54 0.48 0.67 1.04 1.41 1.26 0.95 0.87 0.93 0.75 0.45 0.16 0.02
0.00 0.00 0.00 0.00 0.00 0.00 0.01 0.02 0.06 0.08 0.07 0.09 0.16 0.27 0.44 0.62 0.71 0.92 1.20 1.31 1.32 1.12 0.94 0.75 0.56 0.47 0.51 0.58 0.57 0.53 0.52 0.57 0.59 0.59 0.75 1.25 1.31 1.14 1.07 1.01 0.76 0.45 0.19
0.00 0.00 0.01 0.01 0.01 0.01 0.01 0.04 0.03 0.01 0.07 0.10 0.12 0.16 0.24 0.29 0.36 0.43 0.68 1.01 1.17 0.86 0.64 0.43 0.36 0.42 0.47 0.44 0.37 0.50 0.65 0.67 0.59 0.70 0.78 0.75 0.85 0.96 0.85 0.78 0.79 0.67 0.52
0.00 0.01 0.01 0.01 0.01 0.01 0.04 0.01 0.01 0.01 0.02 0.08 0.14 0.16 0.15 0.14 0.20 0.28 0.34 0.38 0.57 0.66 0.46 0.24 0.21 0.14 0.09 0.19 0.34 0.42 0.41 0.45 0.62 0.63 0.75 1.09 0.97 0.91 1.02 0.98 0.86 0.71 0.49
0.00 0.01 0.01 0.02 0.03 0.04 0.02 0.00 0.01 0.02 0.04 0.04 0.13 0.13 0.11 0.11 0.13 0.14 0.19 0.23 0.23 0.25 0.28 0.20 0.20 0.14 0.12 0.10 0.10 0.17 0.30 0.47 0.50 0.46 0.42 0.62 1.00 0.97 0.77 0.85 0.88 0.90 0.89
0.01 0.02 0.03 0.06 0.07 0.03 0.01 0.01 0.02 0.02 0.03 0.04 0.09 0.13 0.12 0.11 0.12 0.11 0.13 0.17 0.14 0.15 0.14 0.05 0.05 0.08 0.07 0.06 0.07 0.08 0.09 0.15 0.19 0.26 0.31 0.33 0.54 0.93 1.01 0.89 0.77 0.71 0.75
0.01 0.05 0.06 0.09 0.10 0.06 0.03 0.05 0.04 0.03 0.07 0.07 0.07 0.08 0.10 0.14 0.14 0.13 0.15 0.18 0.17 0.11 0.11 0.09 0.06 0.05 0.04 0.04 0.05 0.07 0.07 0.09 0.12 0.15 0.16 0.18 0.20 0.36 0.77 0.91 0.90 0.78 0.71
0.03 0.07 0.08 0.12 0.12 0.07 0.11 0.16 0.11 0.11 0.16 0.17 0.15 0.14 0.12 0.16 0.17 0.13 0.20 0.21 0.19 0.21 0.17 0.15 0.10 0.09 0.07 0.06 0.06 0.09 0.09 0.07 0.08 0.12 0.10 0.17 0.23 0.19 0.27 0.55 0.86 0.93 0.85
0.04 0.07 0.10 0.14 0.12 0.10 0.15 0.27 0.24 0.28 0.40 0.36 0.33 0.30 0.24 0.27 0.30 0.29 0.25 0.25 0.33 0.24 0.27 0.24 0.21 0.14 0.16 0.09 0.13 0.12 0.13 0.14 0.07 0.06 0.08 0.07 0.12 0.23 0.26 0.27 0.40 0.64 0.92
0.03 0.08 0.10 0.09 0.10 0.11 0.11 0.15 0.24 0.30 0.34 0.51 0.51 0.47 0.48 0.52 0.51 0.50 0.47 0.36 0.31 0.48 0.28 0.27 0.31 0.29 0.18 0.28 0.18 0.15 0.15 0.13 0.16 0.16 0.10 0.06 0.06 0.09 0.21 0.31 0.32 0.41 0.52
0.01 0.05 0.08 0.08 0.09 0.11 0.13 0.16 0.22 0.35 0.35 0.32 0.41 0.50 0.52 0.54 0.49 0.54 0.48 0.52 0.51 0.52 0.64 0.43 0.33 0.42 0.45 0.26 0.37 0.28 0.23 0.24 0.20 0.14 0.28 0.17 0.09 0.08 0.12 0.18 0.31 0.38 0.37
0.00 0.00 0.02 0.04 0.03 0.07 0.11 0.10 0.12 0.26 0.47 0.53 0.43 0.41 0.43 0.51 0.51 0.46 0.53 0.50 0.57 0.58 0.66 0.72 0.63 0.42 0.58 0.46 0.35 0.50 0.39 0.19 0.17 0.12 0.16 0.20 0.19 0.15 0.07 0.17 0.34 0.41 0.47
0.00 0.00 0.00 0.00 0.00 0.01 0.04 0.05 0.04 0.03 0.15 0.40 0.51 0.45 0.41 0.34 0.43 0.50 0.47 0.54 0.54 0.62 0.67 0.74 0.69 0.60 0.55 0.48 0.53 0.43 0.52 0.54 0.30 0.18 0.25 0.29 0.17 0.13 0.08 0.09 0.21 0.30 0.38
0.00 0.00 0.00 0.00 0.00 0.00 0.01 0.03 0.03 0.02 0.03 0.05 0.15 0.31 0.37 0.31 0.29 0.35 0.44 0.47 0.53 0.56 0.67 0.74 0.84 0.64 0.72 0.67 0.52 0.67 0.54 0.51 0.69 0.43 0.26 0.26 0.21 0.24 0.32 0.31 0.24 0.25 0.27
0.00 0.00 0.01 0.00 0.00 0.00 0.00 0.02 0.02 0.01 0.02 0.02 0.02 0.05 0.14 0.25 0.26 0.27 0.26 0.31 0.44 0.48 0.55 0.58 0.74 0.75 0.56 0.70 0.63 0.53 0.72 0.74 0.64 0.84 0.40 0.36 0.22 0.16 0.31 0.26 0.30 0.30 0.24

GFSMA_prec_precacc24_183.txt.gz
Total_Precipitation_Accumulation
0.10 0.08 0.05 0.04 0.04 0.04 0.06 0.11 0.15 0.11 0.08 0.07 0.12 0.11 0.12 0.09 0.04 0.04 0.04 0.25 0.16 0.12 0.17 0.27 0.33 0.42 0.58 0.83 0.86 0.66 0.34 0.21 0.06 0.03 0.01 0.00 0.00 0.01 0.01 0.01 0.01 0.02 0.06
0.09 0.09 0.08 0.07 0.04 0.05 0.05 0.06 0.07 0.08 0.06 0.06 0.07 0.12 0.13 0.11 0.09 0.06 0.02 0.14 0.26 0.17 0.13 0.20 0.29 0.35 0.35 0.41 0.67 1.09 1.13 0.89 0.59 0.18 0.03 0.00 0.01 0.00 0.01 0.01 0.00 0.01 0.02
0.04 0.08 0.09 0.07 0.06 0.04 0.05 0.10 0.06 0.07 0.07 0.08 0.06 0.07 0.11 0.11 0.11 0.05 0.02 0.02 0.16 0.21 0.16 0.15 0.18 0.24 0.42 0.60 0.70 0.74 0.86 0.91 0.76 0.35 0.08 0.03 0.04 0.02 0.01 0.01 0.00 0.01 0.02
0.00 0.03 0.09 0.10 0.06 0.06 0.06 0.08 0.06 0.06 0.07 0.11 0.06 0.05 0.08 0.09 0.10 0.11 0.11 0.05 0.02 0.10 0.20 0.14 0.15 0.14 0.21 0.35 0.39 0.74 1.26 0.86 0.51 0.24 0.15 0.14 0.07 0.06 0.02 0.01 0.00 0.01 0.02
0.00 0.00 0.01 0.04 0.04 0.06 0.08 0.10 0.10 0.10 0.09 0.08 0.07 0.08 0.07 0.05 0.05 0.09 0.11 0.10 0.08 0.06 0.07 0.22 0.20 0.16 0.20 0.26 0.39 0.59 0.85 0.86 0.81 0.88 0.71 0.61 0.37 0.16 0.10 0.03 0.01 0.01 0.01
0.00 0.00 0.00 0.00 0.03 0.05 0.09 0.12 0.16 0.16 0.14 0.16 0.18 0.09 0.08 0.05 0.04 0.06 0.08 0.11 0.13 0.10 0.04 0.08 0.22 0.21 0.31 0.46 0.48 0.62 1.10 1.66 1.83 1.72 1.53 1.25 0.77 0.43 0.27 0.10 0.03 0.01 0.01
0.00 0.00 0.00 0.00 0.01 0.02 0.04 0.07 0.11 0.14 0.12 0.20 0.31 0.20 0.14 0.14 0.11 0.07 0.07 0.08 0.12 0.13 0.12 0.13 0.13 0.16 0.19 0.24 0.23 0.24 0.32 0.43 0.52 0.86 1.31 1.08 0.70 0.55 0.29 0.14 0.09 0.03 0.01
0.00 0.00 0.00 0.00 0.00 0.00 0.01 0.02 0.03 0.07 0.16 0.27 0.40 0.46 0.43 0.32 0.24 0.19 0.15 0.17 0.17 0.18 0.18 0.17 0.17 0.15 0.17 0.23 0.24 0.33 0.53 0.49 0.56 0.64 0.59 0.74 0.72 0.74 0.50 0.43 0.28 0.09 0.02
0.00 0.00 0.00 0.00 0.00 0.00 0.00 0.01 0.01 0.02 0.05 0.14 0.28 0.58 0.79 0.70 0.44 0.31 0.23 0.15 0.14 0.16 0.20 0.21 0.31 0.35 0.32 0.30 0.41 0.46 0.53 0.66 0.78 0.96 1.16 1.24 1.09 0.75 0.77 0.61 0.37 0.23 0.08
0.00 0.00 0.00 0.00 0.00 0.00 0.01 0.00 0.01 0.02 0.03 0.04 0.09 0.15 0.22 0.33 0.42 0.38 0.31 0.28 0.24 0.23 0.21 0.21 0.20 0.26 0.34 0.39 0.44 0.60 0.61 0.47 0.48 0.62 0.83 0.99 0.85 0.63 0.37 0.36 0.38 0.29 0.19
0.00 0.00 0.00 0.00 0.00 0.00 0.01 0.01 0.01 0.02 0.04 0.06 0.08 0.23 0.29 0.31 0.36 0.40 0.33 0.23 0.28 0.41 0.47 0.57 0.59 0.46 0.33 0.34 0.35 0.41 0.55 0.86 0.98 0.91 0.89 0.80 0.88 0.95 0.79 0.50 0.37 0.34 0.25
0.00 0.00 0.00 0.00 0.00 0.01 0.01 0.01 0.02 0.04 0.05 0.04 0.04 0.08 0.26 0.50 0.78 1.00 1.04 0.77 0.50 0.34 0.33 0.41 0.53 0.60 0.58 0.49 0.40 0.44 0.51 0.47 0.67 1.04 1.41 1.26 0.95 0.87 0.93 0.78 0.60 0.47 0.42
0.00 0.00 0.00 0.00 0.00 0.00 0.01 0.02 0.06 0.05 0.02 0.02 0.01 0.04 0.09 0.18 0.36 0.64 0.86 0.91 0.84 0.59 0.50 0.44 0.41 0.42 0.47 0.54 0.54 0.47 0.46 0.54 0.58 0.59 0.75 1.25 1.31 1.14 1.07 1.01 0.78 0.59 0.50
0.00 0.00 0.01 0.01 0.01 0.01 0.01 0.04 0.02 0.01 0.01 0.01 0.01 0.02 0.05 0.06 0.13 0.22 0.45 0.77 0.87 0.65 0.51 0.33 0.28 0.36 0.44 0.43 0.37 0.46 0.59 0.62 0.56 0.69 0.78 0.75 0.85 0.96 0.85 0.78 0.79 0.69 0.61
0.00 0.00 0.00 0.01 0.01 0.01 0.04 0.01 0.00 0.00 0.00 0.01 0.02 0.02 0.03 0.06 0.07 0.12 0.18 0.26 0.50 0.65 0.46 0.24 0.21 0.13 0.09 0.18 0.32 0.39 0.35 0.39 0.52 0.57 0.72 1.08 0.97 0.90 1.00 0.98 0.86 0.72 0.52
0.00 0.00 0.01 0.01 0.01 0.03 0.02 0.00 0.00 0.00 0.00 0.01 0.02 0.03 0.04 0.06 0.08 0.09 0.15 0.16 0.19 0.24 0.29 0.20 0.20 0.14 0.11 0.06 0.05 0.12 0.28 0.41 0.43 0.38 0.37 0.60 0.99 0.97 0.75 0.82 0.85 0.90 0.89
0.01 0.01 0.01 0.01 0.02 0.02 0.00 0.01 0.01 0.00 0.00 0.00 0.01 0.04 0.04 0.06 0.09 0.09 0.10 0.14 0.13 0.15 0.14 0.05 0.05 0.08 0.06 0.05 0.06 0.06 0.06 0.10 0.15 0.21 0.26 0.30 0.53 0.92 1.00 0.88 0.75 0.69 0.75
0.00 0.01 0.01 0.02 0.02 0.01 0.01 0.03 0.03 0.01 0.03 0.03 0.02 0.04 0.05 0.08 0.10 0.11 0.15 0.18 0.18 0.11 0.11 0.09 0.06 0.05 0.04 0.04 0.05 0.06 0.06 0.07 0.10 0.14 0.11 0.12 0.16 0.35 0.77 0.90 0.90 0.78 0.71
0.00 0.01 0.01 0.02 0.02 0.02 0.03 0.06 0.05 0.05 0.07 0.09 0.09 0.08 0.10 0.14 0.16 0.13 0.18 0.20 0.19 0.20 0.15 0.13 0.10 0.09 0.07 0.05 0.06 0.09 0.08 0.06 0.08 0.11 0.09 0.13 0.17 0.16 0.25 0.54 0.86 0.93 0.85
0.00 0.01 0.01 0.02 0.03 0.04 0.05 0.06 0.06 0.09 0.16 0.20 0.24 0.24 0.21 0.24 0.28 0.28 0.24 0.25 0.32 0.23 0.25 0.22 0.19 0.12 0.14 0.08 0.11 0.09 0.10 0.12 0.07 0.05 0.06 0.05 0.09 0.20 0.23 0.25 0.38 0.63 0.91
0.00 0.00 0.01 0.01 0.03 0.04 0.04 0.04 0.06 0.11 0.16 0.25 0.33 0.36 0.42 0.45 0.44 0.44 0.43 0.34 0.30 0.48 0.28 0.25 0.30 0.28 0.16 0.25 0.12 0.09 0.09 0.08 0.11 0.12 0.07 0.04 0.04 0.06 0.17 0.29 0.31 0.40 0.51
0.00 0.00 0.00 0.00 0.01 0.01 0.02 0.04 0.08 0.08 0.11 0.17 0.26 0.38 0.42 0.48 0.45 0.49 0.45 0.48 0.51 0.53 0.64 0.43 0.33 0.42 0.45 0.24 0.33 0.20 0.16 0.19 0.16 0.10 0.21 0.14 0.07 0.05 0.02 0.06 0.23 0.33 0.36
0.00 0.00 0.00 0.01 0.00 0.00 0.01 0.03 0.04 0.06 0.09 0.14 0.20 0.21 0.30 0.47 0.47 0.45 0.51 0.50 0.57 0.58 0.65 0.72 0.66 0.44 0.58 0.45 0.34 0.48 0.36 0.18 0.17 0.12 0.14 0.19 0.18 0.15 0.06 0.05 0.08 0.15 0.34
0.00 0.00 0.00 0.00 0.00 0.00 0.01 0.03 0.02 0.02 0.05 0.08 0.15 0.24 0.26 0.27 0.41 0.49 0.48 0.54 0.54 0.62 0.67 0.75 0.70 0.60 0.56 0.48 0.54 0.45 0.54 0.55 0.26 0.14 0.23 0.26 0.15 0.12 0.06 0.07 0.12 0.09 0.11
0.00 0.00 0.00 0.00 0.00 0.00 0.00 0.02 0.02 0.01 0.01 0.01 0.03 0.14 0.26 0.27 0.27 0.35 0.43 0.47 0.53 0.56 0.67 0.74 0.84 0.64 0.72 0.67 0.52 0.66 0.53 0.52 0.69 0.42 0.24 0.21 0.13 0.13 0.18 0.11 0.08 0.15 0.16
0.00 0.00 0.01 0.00 0.00 0.00 0.00 0.02 0.02 0.01 0.01 0.01 0.00 0.02 0.07 0.20 0.22 0.26 0.25 0.31 0.44 0.48 0.55 0.58 0.74 0.75 0.56 0.70 0.63 0.53 0.75 0.78 0.65 0.85 0.39 0.35 0.22 0.13 0.19 0.10 0.13 0.16 0.13

GFSMA_prec_precacc24_186.txt.gz
Total_Precipitation_Accumulation
0.04 0.04 0.03 0.03 0.03 0.03 0.05 0.11 0.15 0.11 0.08 0.07 0.12 0.11 0.12 0.09 0.04 0.04 0.04 0.25 0.16 0.12 0.16 0.25 0.32 0.41 0.58 0.83 0.87 0.72 0.48 0.39 0.24 0.20 0.18 0.11 0.03 0.01 0.01 0.01 0.01 0.02 0.07
0.00 0.01 0.02 0.03 0.04 0.05 0.04 0.05 0.07 0.08 0.06 0.06 0.07 0.12 0.13 0.11 0.09 0.06 0.02 0.14 0.26 0.17 0.13 0.18 0.26 0.33 0.33 0.41 0.67 1.09 1.15 0.96 1.06 0.70 0.42 0.15 0.12 0.07 0.04 0.01 0.00 0.01 0.03
0.00 0.00 0.00 0.00 0.02 0.03 0.02 0.03 0.04 0.06 0.06 0.07 0.06 0.07 0.11 0.11 0.11 0.05 0.02 0.02 0.16 0.21 0.16 0.14 0.17 0.22 0.37 0.57 0.70 0.74 0.87 0.94 0.89 0.59 0.33 0.22 0.20 0.12 0.10 0.05 0.01 0.01 0.02
0.00 0.00 0.00 0.00 0.00 0.00 0.01 0.02 0.04 0.04 0.05 0.07 0.05 0.04 0.07 0.09 0.10 0.11 0.11 0.05 0.02 0.10 0.20 0.14 0.15 0.14 0.21 0.32 0.38 0.74 1.26 0.87 0.53 0.31 0.29 0.34 0.29 0.29 0.18 0.11 0.07 0.01 0.01
0.00 0.00 0.00 0.00 0.00 0.00 0.00 0.00 0.01 0.04 0.06 0.05 0.04 0.03 0.03 0.04 0.05 0.09 0.11 0.10 0.08 0.06 0.07 0.22 0.20 0.16 0.20 0.25 0.36 0.58 0.85 0.86 0.82 0.88 0.71 0.64 0.68 0.65 0.54 0.39 0.16 0.09 0.05
0.00 0.00 0.00 0.00 0.00 0.00 0.00 0.00 0.01 0.02 0.05 0.07 0.07 0.04 0.02 0.02 0.02 0.06 0.08 0.11 0.13 0.10 0.04 0.08 0.22 0.21 0.31 0.46 0.48 0.61 1.09 1.66 1.82 1.72 1.53 1.25 0.85 0.63 0.60 0.46 0.26 0.17 0.08
0.00 0.00 0.00 0.00 0.00 0.00 0.00 0.00 0.00 0.00 0.02 0.07 0.14 0.13 0.10 0.06 0.06 0.06 0.06 0.08 0.12 0.13 0.12 0.13 0.13 0.16 0.19 0.24 0.23 0.24 0.32 0.41 0.50 0.85 1.31 1.08 0.70 0.58 0.42 0.29 0.30 0.28 0.16
0.00 0.00 0.00 0.00 0.00 0.00 0.00 0.00 0.00 0.00 0.00 0.05 0.22 0.35 0.36 0.28 0.20 0.16 0.14 0.17 0.14 0.15 0.16 0.16 0.16 0.15 0.17 0.23 0.24 0.33 0.53 0.47 0.52 0.63 0.59 0.74 0.72 0.74 0.55 0.56 0.47 0.30 0.21
0.00 0.00 0.00 0.00 0.00 0.00 0.00 0.00 0.00 0.00 0.01 0.00 0.01 0.13 0.24 0.32 0.36 0.27 0.19 0.12 0.08 0.11 0.13 0.12 0.15 0.19 0.25 0.29 0.41 0.46 0.53 0.66 0.76 0.94 1.16 1.24 1.09 0.75 0.77 0.64 0.57 0.53 0.37
0.00 0.00 0.00 0.00 0.00 0.00 0.00 0.00 0.00 0.01 0.02 0.03 0.01 0.01 0.06 0.16 0.26 0.32 0.26 0.23 0.16 0.12 0.09 0.12 0.12 0.15 0.20 0.32 0.42 0.60 0.61 0.47 0.48 0.61 0.82 0.99 0.85 0.63 0.37 0.36 0.42 0.38 0.41
0.00 0.00 0.00 0.00 0.00 0.00 0.00 0.00 0.01 0.01 0.03 0.05 0.05 0.04 0.02 0.03 0.06 0.14 0.15 0.14 0.21 0.26 0.21 0.20 0.20 0.20 0.21 0.25 0.29 0.39 0.55 0.86 0.98 0.91 0.89 0.79 0.88 0.95 0.79 0.50 0.37 0.36 0.36
0.00 0.00 0.00 0.00 0.00 0.00 0.01 0.01 0.01 0.03 0.04 0.03 0.02 0.03 0.04 0.06 0.06 0.10 0.11 0.15 0.24 0.18 0.18 0.25 0.33 0.32 0.32 0.32 0.32 0.37 0.47 0.46 0.67 1.04 1.41 1.25 0.95 0.87 0.93 0.78 0.60 0.47 0.44
0.00 0.00 0.00 0.00 0.00 0.00 0.01 0.01 0.04 0.03 0.01 0.01 0.01 0.01 0.02 0.03 0.05 0.07 0.12 0.11 0.18 0.27 0.29 0.24 0.23 0.31 0.42 0.48 0.49 0.43 0.41 0.49 0.56 0.58 0.75 1.25 1.30 1.14 1.07 1.01 0.78 0.59 0.50
0.00 0.00 0.00 0.00 0.00 0.00 0.01 0.03 0.01 0.00 0.00 0.01 0.01 0.01 0.01 0.02 0.04 0.07 0.12 0.41 0.58 0.35 0.24 0.15 0.13 0.21 0.29 0.32 0.31 0.41 0.54 0.58 0.51 0.66 0.78 0.75 0.85 0.96 0.85 0.78 0.79 0.69 0.61
0.00 0.00 0.00 0.00 0.00 0.00 0.02 0.01 0.00 0.00 0.00 0.00 0.01 0.01 0.01 0.02 0.04 0.06 0.09 0.16 0.34 0.35 0.18 0.08 0.07 0.07 0.07 0.15 0.27 0.33 0.28 0.34 0.49 0.53 0.68 1.07 0.97 0.90 1.00 0.98 0.86 0.72 0.52
0.00 0.00 0.00 0.00 0.00 0.01 0.01 0.00 0.00 0.00 0.00 0.00 0.01 0.01 0.01 0.02 0.03 0.06 0.10 0.10 0.13 0.16 0.19 0.03 0.04 0.07 0.09 0.06 0.04 0.11 0.27 0.40 0.42 0.37 0.34 0.56 0.98 0.96 0.75 0.82 0.85 0.89 0.88
0.00 0.00 0.00 0.00 0.00 0.01 0.00 0.00 0.01 0.00 0.00 0.00 0.01 0.01 0.01 0.01 0.03 0.06 0.08 0.10 0.11 0.14 0.15 0.05 0.03 0.04 0.05 0.05 0.06 0.06 0.06 0.10 0.15 0.20 0.24 0.28 0.51 0.91 1.00 0.88 0.74 0.66 0.70
0.00 0.00 0.00 0.00 0.00 0.00 0.00 0.01 0.01 0.00 0.01 0.02 0.01 0.01 0.01 0.02 0.03 0.05 0.10 0.15 0.16 0.11 0.11 0.09 0.05 0.04 0.03 0.03 0.05 0.06 0.06 0.07 0.09 0.12 0.09 0.08 0.14 0.33 0.76 0.89 0.89 0.77 0.67
0.00 0.00 0.00 0.00 0.00 0.00 0.01 0.01 0.00 0.01 0.02 0.03 0.04 0.04 0.04 0.05 0.05 0.06 0.15 0.17 0.18 0.19 0.15 0.13 0.10 0.08 0.05 0.05 0.06 0.08 0.08 0.05 0.07 0.10 0.07 0.11 0.15 0.14 0.23 0.52 0.85 0.91 0.83
0.00 0.00 0.00 0.00 0.00 0.00 0.00 0.01 0.01 0.01 0.02 0.03 0.07 0.08 0.10 0.11 0.13 0.21 0.19 0.23 0.29 0.19 0.24 0.21 0.17 0.10 0.14 0.07 0.11 0.09 0.10 0.12 0.07 0.05 0.05 0.03 0.07 0.16 0.18 0.20 0.33 0.61 0.89
0.00 0.00 0.00 0.00 0.00 0.00 0.00 0.00 0.02 0.03 0.02 0.04 0.07 0.13 0.22 0.30 0.27 0.31 0.37 0.30 0.28 0.47 0.26 0.23 0.27 0.26 0.15 0.24 0.11 0.08 0.08 0.07 0.10 0.12 0.07 0.03 0.03 0.05 0.15 0.25 0.24 0.34 0.48
0.00 0.00 0.00 0.00 0.00 0.00 0.00 0.00 0.02 0.03 0.02 0.04 0.07 0.08 0.14 0.30 0.33 0.39 0.36 0.39 0.44 0.48 0.61 0.40 0.28 0.38 0.40 0.19 0.31 0.18 0.12 0.16 0.15 0.10 0.18 0.09 0.05 0.04 0.01 0.05 0.20 0.27 0.28
0.00 0.00 0.00 0.00 0.00 0.00 0.00 0.01 0.01 0.01 0.03 0.05 0.07 0.09 0.12 0.20 0.29 0.34 0.42 0.41 0.46 0.46 0.57 0.65 0.62 0.43 0.55 0.43 0.34 0.49 0.35 0.16 0.15 0.10 0.11 0.16 0.12 0.08 0.04 0.02 0.04 0.09 0.23
0.00 0.00 0.00 0.00 0.00 0.00 0.00 0.01 0.01 0.00 0.00 0.02 0.05 0.09 0.13 0.13 0.21 0.30 0.36 0.41 0.44 0.54 0.56 0.70 0.67 0.59 0.55 0.48 0.55 0.46 0.54 0.53 0.25 0.13 0.22 0.24 0.14 0.12 0.05 0.05 0.10 0.05 0.05
0.00 0.00 0.00 0.00 0.00 0.00 0.00 0.01 0.01 0.00 0.00 0.00 0.00 0.03 0.07 0.10 0.14 0.24 0.31 0.34 0.41 0.44 0.63 0.71 0.83 0.63 0.71 0.65 0.51 0.66 0.54 0.52 0.68 0.40 0.23 0.20 0.12 0.12 0.17 0.10 0.06 0.13 0.13
0.00 0.00 0.00 0.00 0.00 0.00 0.00 0.01 0.01 0.01 0.01 0.01 0.00 0.00 0.01 0.03 0.08 0.16 0.21 0.29 0.39 0.47 0.54 0.57 0.74 0.75 0.56 0.69 0.62 0.53 0.76 0.80 0.65 0.85 0.39 0.35 0.22 0.13 0.21 0.09 0.10 0.11 0.08